Observation data for Sweetwater on 12/09/2018      Previous  Date  Next       Current Mesonet Observations  Soil Data  Daily Summary Page  Observations in Plain Language
KSW1 090600Z 27001KT M01/M01 A3031 RMK A01 T10141014  RH  100%=      5-min Rain = 0
KSW1 090601Z 27000KT M01/M01 A3031 RMK A01 T10141014  RH  100%=      5-min Rain = 0
KSW1 090602Z 27000KT M01/M01 A3031 RMK A01 T10141014  RH  100%=      5-min Rain = 0
KSW1 090603Z 27000KT M01/M01 A3031 RMK A01 T10141014  RH  100%=      5-min Rain = 0
KSW1 090604Z 27000KT M01/M01 A3031 RMK A01 T10141014  RH  100%=      5-min Rain = 0
KSW1 090605Z 27000KT M01/M01 A3031 RMK A01 T10141014  RH  100%=      5-min Rain = 0
KSW1 090606Z 00000KT M01/M01 A3031 RMK A01 T10141014  RH  100%=      5-min Rain = 0
KSW1 090607Z 00000KT M01/M02 A3031 RMK A01 T10141015  RH  100%=      5-min Rain = 0
KSW1 090608Z 00000KT M02/M02 A3031 RMK A01 T10151015  RH  100%=      5-min Rain = 0
KSW1 090609Z 00000KT M02/M02 A3031 RMK A01 T10151015  RH  100%=      5-min Rain = 0
KSW1 090610Z 00000KT M02/M02 A3031 RMK A01 T10151015  RH  100%=      5-min Rain = 0
KSW1 090611Z 00000KT M02/M02 A3031 RMK A01 T10151015  RH  100%=      5-min Rain = 0
KSW1 090612Z 29000KT M01/M01 A3031 RMK A01 T10141014  RH  100%=      5-min Rain = 0
KSW1 090613Z 29001KT M01/M01 A3031 RMK A01 T10141014  RH  100%=      5-min Rain = 0
KSW1 090614Z 29001KT M01/M01 A3031 RMK A01 T10141014  RH  100%=      5-min Rain = 0
KSW1 090615Z 29001KT M01/M01 A3031 RMK A01 T10141014  RH  100%=      5-min Rain = 0
KSW1 090616Z 30001KT M01/M01 A3031 RMK A01 T10141014  RH  100%=      5-min Rain = 0
KSW1 090617Z 30001KT M01/M01 A3031 RMK A01 T10131013  RH  100%=      5-min Rain = 0
KSW1 090618Z 31001KT M01/M01 A3031 RMK A01 T10121013  RH  100%=      5-min Rain = 0
KSW1 090619Z 31001KT M01/M01 A3031 RMK A01 T10121012  RH  100%=      5-min Rain = 0
KSW1 090620Z 31001KT M01/M01 A303 RMK A01 T10121012  RH  100%=      5-min Rain = 0
KSW1 090621Z 32001KT M01/M01 A303 RMK A01 T10121012  RH  100%=      5-min Rain = 0
KSW1 090622Z 32001KT M01/M01 A3031 RMK A01 T10121012  RH  100%=      5-min Rain = 0
KSW1 090623Z 32001KT M01/M01 A3031 RMK A01 T10121012  RH  100%=      5-min Rain = 0
KSW1 090624Z 32001KT M01/M01 A3031 RMK A01 T10131013  RH  100%=      5-min Rain = 0
KSW1 090625Z 31001KT M01/M01 A3031 RMK A01 T10141014  RH  100%=      5-min Rain = 0
KSW1 090626Z 31001KT M01/M01 A3031 RMK A01 T10141014  RH  100%=      5-min Rain = 0
KSW1 090627Z 31001KT M01/M01 A3031 RMK A01 T10141014  RH  100%=      5-min Rain = 0
KSW1 090628Z 31001KT M01/M01 A3031 RMK A01 T10141014  RH  100%=      5-min Rain = 0
KSW1 090629Z 31001KT M01/M01 A3031 RMK A01 T10141014  RH  100%=      5-min Rain = 0
KSW1 090630Z 31001KT M01/M01 A3031 RMK A01 T10141014  RH  100%=      5-min Rain = 0
KSW1 090631Z 32001KT M01/M01 A3031 RMK A01 T10141014  RH  100%=      5-min Rain = 0
KSW1 090632Z 33001KT M01/M01 A3031 RMK A01 T10141014  RH  100%=      5-min Rain = 0
KSW1 090633Z 34001KT M01/M01 A303 RMK A01 T10141014  RH  100%=      5-min Rain = 0
KSW1 090634Z 34001KT M01/M01 A303 RMK A01 T10141014  RH  100%=      5-min Rain = 0
KSW1 090635Z 34002KT M01/M01 A303 RMK A01 T10141014  RH  100%=      5-min Rain = 0
KSW1 090636Z 33001KT M01/M01 A303 RMK A01 T10131013  RH  100%=      5-min Rain = 0
KSW1 090637Z 33002KT M01/M01 A303 RMK A01 T10131013  RH  100%=      5-min Rain = 0
KSW1 090638Z 33002KT M01/M01 A303 RMK A01 T10131013  RH  100%=      5-min Rain = 0
KSW1 090639Z 33002KT M01/M01 A303 RMK A01 T10131013  RH  100%=      5-min Rain = 0
KSW1 090640Z 32002KT M01/M01 A303 RMK A01 T10131013  RH  100%=      5-min Rain = 0
KSW1 090641Z 33002KT M01/M01 A303 RMK A01 T10131013  RH  100%=      5-min Rain = 0
KSW1 090642Z 33002KT M01/M01 A303 RMK A01 T10131013  RH  100%=      5-min Rain = 0
KSW1 090643Z 33002KT M01/M01 A303 RMK A01 T10121012  RH  100%=      5-min Rain = 0
KSW1 090644Z 33002KT M01/M01 A303 RMK A01 T10121012  RH  100%=      5-min Rain = 0
KSW1 090645Z 32002KT M01/M01 A303 RMK A01 T10121012  RH  100%=      5-min Rain = 0
KSW1 090646Z 32002KT M01/M01 A303 RMK A01 T10121012  RH  100%=      5-min Rain = 0
KSW1 090647Z 32002KT M01/M01 A303 RMK A01 T10111011  RH  100%=      5-min Rain = 0
KSW1 090648Z 32002KT M01/M01 A303 RMK A01 T10111011  RH  100%=      5-min Rain = 0
KSW1 090649Z 32002KT M01/M01 A303 RMK A01 T10101011  RH  100%=      5-min Rain = 0
KSW1 090650Z 32002KT M01/M01 A303 RMK A01 T10101011  RH  100%=      5-min Rain = 0
KSW1 090651Z 32002KT M01/M01 A303 RMK A01 T10101010  RH  100%=      5-min Rain = 0
KSW1 090652Z 32002KT M01/M01 A303 RMK A01 T10101010  RH  100%=      5-min Rain = 0
KSW1 090653Z 31002KT M01/M01 A303 RMK A01 T10101010  RH  100%=      5-min Rain = 0
KSW1 090654Z 32002KT M01/M01 A303 RMK A01 T10101010  RH  100%=      5-min Rain = 0
KSW1 090655Z 32002KT M01/M01 A303 RMK A01 T10101010  RH  100%=      5-min Rain = 0
KSW1 090656Z 32002KT M01/M01 A303 RMK A01 T10101010  RH  100%=      5-min Rain = 0
KSW1 090657Z 32001KT M01/M01 A303 RMK A01 T10111011  RH  100%=      5-min Rain = 0
KSW1 090658Z 32001KT M01/M01 A3031 RMK A01 T10111011  RH  100%=      5-min Rain = 0
KSW1 090659Z 31001KT M01/M01 A3031 RMK A01 T10111011  RH  100%=      5-min Rain = 0
KSW1 090700Z 31001KT M01/M01 A3031 RMK A01 T10111011  RH  100%=      5-min Rain = 0
KSW1 090701Z 30001KT M01/M01 A3031 RMK A01 T10121012  RH  100%=      5-min Rain = 0
KSW1 090702Z 30001KT M01/M01 A3031 RMK A01 T10121013  RH  100%=      5-min Rain = 0
KSW1 090703Z 30001KT M01/M01 A3031 RMK A01 T10131013  RH  100%=      5-min Rain = 0
KSW1 090704Z 30001KT M01/M01 A3031 RMK A01 T10141014  RH  100%=      5-min Rain = 0
KSW1 090705Z 30001KT M02/M02 A3031 RMK A01 T10151015  RH  100%=      5-min Rain = 0
KSW1 090706Z 31002KT M02/M02 A3031 RMK A01 T10151015  RH  100%=      5-min Rain = 0
KSW1 090707Z 31001KT M02/M02 A3031 RMK A01 T10151015  RH  100%=      5-min Rain = 0
KSW1 090708Z 32002KT M02/M02 A3031 RMK A01 T10151015  RH  100%=      5-min Rain = 0
KSW1 090709Z 32001KT M02/M02 A3031 RMK A01 T10151015  RH  100%=      5-min Rain = 0
KSW1 090710Z 32002KT M02/M02 A303 RMK A01 T10151015  RH  100%=      5-min Rain = 0
KSW1 090711Z 32001KT M02/M02 A3031 RMK A01 T10151015  RH  100%=      5-min Rain = 0
KSW1 090712Z 32001KT M01/M02 A303 RMK A01 T10141015  RH  100%=      5-min Rain = 0
KSW1 090713Z 32001KT M01/M01 A303 RMK A01 T10141014  RH  100%=      5-min Rain = 0
KSW1 090714Z 32001KT M01/M01 A303 RMK A01 T10141014  RH  100%=      5-min Rain = 0
KSW1 090715Z 33001KT M01/M01 A303 RMK A01 T10141014  RH  100%=      5-min Rain = 0
KSW1 090716Z 33001KT M01/M01 A303 RMK A01 T10141014  RH  100%=      5-min Rain = 0
KSW1 090717Z 33001KT M01/M01 A303 RMK A01 T10141014  RH  100%=      5-min Rain = 0
KSW1 090718Z 33001KT M01/M01 A303 RMK A01 T10141014  RH  100%=      5-min Rain = 0
KSW1 090719Z 33001KT M01/M01 A303 RMK A01 T10141014  RH  100%=      5-min Rain = 0
KSW1 090720Z 33001KT M01/M01 A303 RMK A01 T10141014  RH  100%=      5-min Rain = 0
KSW1 090721Z 32001KT M01/M01 A303 RMK A01 T10141014  RH  100%=      5-min Rain = 0
KSW1 090722Z 32001KT M01/M01 A303 RMK A01 T10141014  RH  100%=      5-min Rain = 0
KSW1 090723Z 31001KT M01/M01 A303 RMK A01 T10141014  RH  100%=      5-min Rain = 0
KSW1 090724Z 32001KT M01/M01 A303 RMK A01 T10141014  RH  100%=      5-min Rain = 0
KSW1 090725Z 31001KT M01/M01 A303 RMK A01 T10141014  RH  100%=      5-min Rain = 0
KSW1 090726Z 31001KT M01/M01 A303 RMK A01 T10141014  RH  100%=      5-min Rain = 0
KSW1 090727Z 31001KT M01/M01 A303 RMK A01 T10141014  RH  100%=      5-min Rain = 0
KSW1 090728Z 32001KT M01/M01 A303 RMK A01 T10141014  RH  100%=      5-min Rain = 0
KSW1 090729Z 32001KT M01/M01 A303 RMK A01 T10141014  RH  100%=      5-min Rain = 0
KSW1 090730Z 32001KT M01/M01 A303 RMK A01 T10141014  RH  100%=      5-min Rain = 0
KSW1 090731Z 32001KT M01/M01 A303 RMK A01 T10141014  RH  100%=      5-min Rain = 0
KSW1 090732Z 32001KT M02/M02 A303 RMK A01 T10151015  RH  100%=      5-min Rain = 0
KSW1 090733Z 32001KT M02/M02 A303 RMK A01 T10151015  RH  100%=      5-min Rain = 0
KSW1 090734Z 32001KT M02/M02 A303 RMK A01 T10151015  RH  100%=      5-min Rain = 0
KSW1 090735Z 32001KT M02/M02 A303 RMK A01 T10151015  RH  100%=      5-min Rain = 0
KSW1 090736Z 32001KT M02/M02 A303 RMK A01 T10151015  RH  100%=      5-min Rain = 0
KSW1 090737Z 32001KT M02/M02 A303 RMK A01 T10151015  RH  100%=      5-min Rain = 0
KSW1 090738Z 32001KT M02/M02 A303 RMK A01 T10151015  RH  100%=      5-min Rain = 0
KSW1 090739Z 33001KT M02/M02 A303 RMK A01 T10151015  RH  100%=      5-min Rain = 0
KSW1 090740Z 33001KT M02/M02 A303 RMK A01 T10151015  RH  100%=      5-min Rain = 0
KSW1 090741Z 33001KT M02/M02 A303 RMK A01 T10151015  RH  100%=      5-min Rain = 0
KSW1 090742Z 33001KT M01/M01 A303 RMK A01 T10141014  RH  100%=      5-min Rain = 0
KSW1 090743Z 33001KT M01/M01 A303 RMK A01 T10141014  RH  100%=      5-min Rain = 0
KSW1 090744Z 33001KT M01/M01 A303 RMK A01 T10141014  RH  100%=      5-min Rain = 0
KSW1 090745Z 33001KT M01/M01 A303 RMK A01 T10141014  RH  100%=      5-min Rain = 0
KSW1 090746Z 33001KT M01/M01 A303 RMK A01 T10141014  RH  100%=      5-min Rain = 0
KSW1 090747Z 33001KT M01/M02 A303 RMK A01 T10141015  RH  100%=      5-min Rain = 0
KSW1 090748Z 32002KT M02/M02 A303 RMK A01 T10151015  RH  100%=      5-min Rain = 0
KSW1 090749Z 32002KT M02/M02 A303 RMK A01 T10161016  RH  100%=      5-min Rain = 0
KSW1 090750Z 32002KT M02/M02 A303 RMK A01 T10151015  RH  100%=      5-min Rain = 0
KSW1 090751Z 32002KT M02/M02 A303 RMK A01 T10161016  RH  100%=      5-min Rain = 0
KSW1 090752Z 32001KT M02/M02 A303 RMK A01 T10161016  RH  100%=      5-min Rain = 0
KSW1 090753Z 32001KT M02/M02 A303 RMK A01 T10161016  RH  100%=      5-min Rain = 0
KSW1 090754Z 32001KT M02/M02 A303 RMK A01 T10161016  RH  100%=      5-min Rain = 0
KSW1 090755Z 32001KT M02/M02 A303 RMK A01 T10161016  RH  100%=      5-min Rain = 0
KSW1 090756Z 32001KT M02/M02 A303 RMK A01 T10161016  RH  100%=      5-min Rain = 0
KSW1 090757Z 32001KT M02/M02 A303 RMK A01 T10161016  RH  100%=      5-min Rain = 0
KSW1 090758Z 32001KT M02/M02 A303 RMK A01 T10161016  RH  100%=      5-min Rain = 0
KSW1 090759Z 32001KT M02/M02 A303 RMK A01 T10161016  RH  100%=      5-min Rain = 0
KSW1 090800Z 32001KT M02/M02 A303 RMK A01 T10161016  RH  100%=      5-min Rain = 0
KSW1 090801Z 32001KT M02/M02 A303 RMK A01 T10151016  RH  100%=      5-min Rain = 0
KSW1 090802Z 32001KT M02/M02 A303 RMK A01 T10151015  RH  100%=      5-min Rain = 0
KSW1 090803Z 33001KT M02/M02 A303 RMK A01 T10151015  RH  100%=      5-min Rain = 0
KSW1 090804Z 33001KT M02/M02 A303 RMK A01 T10151015  RH  100%=      5-min Rain = 0
KSW1 090805Z 33001KT M02/M02 A303 RMK A01 T10151015  RH  100%=      5-min Rain = 0
KSW1 090806Z 33001KT M02/M02 A303 RMK A01 T10151015  RH  100%=      5-min Rain = 0
KSW1 090807Z 33001KT M02/M02 A303 RMK A01 T10151015  RH  100%=      5-min Rain = 0
KSW1 090808Z 33001KT M02/M02 A303 RMK A01 T10151015  RH  100%=      5-min Rain = 0
KSW1 090809Z 33001KT M02/M02 A3029 RMK A01 T10151015  RH  100%=      5-min Rain = 0
KSW1 090810Z 33001KT M02/M02 A3029 RMK A01 T10151015  RH  100%=      5-min Rain = 0
KSW1 090811Z 33001KT M02/M02 A3029 RMK A01 T10151015  RH  100%=      5-min Rain = 0
KSW1 090812Z 34001KT M02/M02 A3029 RMK A01 T10151015  RH  100%=      5-min Rain = 0
KSW1 090813Z 34002KT M02/M02 A3029 RMK A01 T10151015  RH  100%=      5-min Rain = 0
KSW1 090814Z 34002KT M02/M02 A3029 RMK A01 T10151015  RH  100%=      5-min Rain = 0
KSW1 090815Z 34002KT M02/M02 A3029 RMK A01 T10151015  RH  100%=      5-min Rain = 0
KSW1 090816Z 34002KT M02/M02 A3029 RMK A01 T10151015  RH  100%=      5-min Rain = 0
KSW1 090817Z 34002KT M02/M02 A3029 RMK A01 T10151016  RH  100%=      5-min Rain = 0
KSW1 090818Z 34002KT M02/M02 A3029 RMK A01 T10151016  RH  100%=      5-min Rain = 0
KSW1 090819Z 35002KT M02/M02 A3029 RMK A01 T10161016  RH  100%=      5-min Rain = 0
KSW1 090820Z 35002KT M02/M02 A3029 RMK A01 T10151016  RH  100%=      5-min Rain = 0
KSW1 090821Z 35002KT M02/M02 A3029 RMK A01 T10161016  RH  100%=      5-min Rain = 0
KSW1 090822Z 35002KT M02/M02 A3029 RMK A01 T10151016  RH  100%=      5-min Rain = 0
KSW1 090823Z 35002KT M02/M02 A3029 RMK A01 T10151016  RH  100%=      5-min Rain = 0
KSW1 090824Z 35002KT M02/M02 A3029 RMK A01 T10161016  RH  100%=      5-min Rain = 0
KSW1 090825Z 35002KT M02/M02 A3029 RMK A01 T10161016  RH  100%=      5-min Rain = 0
KSW1 090826Z 35002KT M02/M02 A3029 RMK A01 T10161016  RH  100%=      5-min Rain = 0
KSW1 090827Z 34002KT M02/M02 A3029 RMK A01 T10161016  RH  100%=      5-min Rain = 0
KSW1 090828Z 34002KT M02/M02 A3029 RMK A01 T10161016  RH  100%=      5-min Rain = 0
KSW1 090829Z 34002KT M02/M02 A3029 RMK A01 T10161017  RH  100%=      5-min Rain = 0
KSW1 090830Z 34002KT M02/M02 A3029 RMK A01 T10171017  RH  100%=      5-min Rain = 0
KSW1 090831Z 34002KT M02/M02 A3029 RMK A01 T10171018  RH  100%=      5-min Rain = 0
KSW1 090832Z 33002KT M02/M02 A3029 RMK A01 T10181018  RH  100%=      5-min Rain = 0
KSW1 090833Z 33002KT M02/M02 A3029 RMK A01 T10181018  RH  100%=      5-min Rain = 0
KSW1 090834Z 33002KT M02/M02 A3029 RMK A01 T10181018  RH  100%=      5-min Rain = 0
KSW1 090835Z 34002KT M02/M02 A3029 RMK A01 T10191019  RH  100%=      5-min Rain = 0
KSW1 090836Z 34002KT M02/M02 A3029 RMK A01 T10191019  RH  100%=      5-min Rain = 0
KSW1 090837Z 34002KT M02/M02 A3029 RMK A01 T10191019  RH  100%=      5-min Rain = 0
KSW1 090838Z 34002KT M02/M02 A3029 RMK A01 T10191019  RH  100%=      5-min Rain = 0
KSW1 090839Z 34002KT M02/M02 A3029 RMK A01 T10181019  RH  100%=      5-min Rain = 0
KSW1 090840Z 34002KT M02/M02 A3029 RMK A01 T10191019  RH  100%=      5-min Rain = 0
KSW1 090841Z 34002KT M02/M02 A3029 RMK A01 T10191019  RH  100%=      5-min Rain = 0
KSW1 090842Z 34002KT M02/M02 A3029 RMK A01 T10191019  RH  100%=      5-min Rain = 0
KSW1 090843Z 34002KT M02/M02 A3029 RMK A01 T10191019  RH  100%=      5-min Rain = 0
KSW1 090844Z 34002KT M02/M02 A3029 RMK A01 T10191019  RH  100%=      5-min Rain = 0
KSW1 090845Z 34002KT M02/M02 A3029 RMK A01 T10191019  RH  100%=      5-min Rain = 0
KSW1 090846Z 34002KT M02/M02 A3029 RMK A01 T10191019  RH  100%=      5-min Rain = 0
KSW1 090847Z 34002KT M02/M02 A3029 RMK A01 T10191019  RH  100%=      5-min Rain = 0
KSW1 090848Z 34002KT M02/M02 A3028 RMK A01 T10191019  RH  100%=      5-min Rain = 0
KSW1 090849Z 34002KT M02/M02 A3028 RMK A01 T10191019  RH  100%=      5-min Rain = 0
KSW1 090850Z 34002KT M02/M02 A3028 RMK A01 T10191019  RH  100%=      5-min Rain = 0
KSW1 090851Z 34002KT M02/M02 A3028 RMK A01 T10191019  RH  100%=      5-min Rain = 0
KSW1 090852Z 34002KT M02/M02 A3028 RMK A01 T10191019  RH  100%=      5-min Rain = 0
KSW1 090853Z 34002KT M02/M02 A3028 RMK A01 T10191019  RH  100%=      5-min Rain = 0
KSW1 090854Z 34002KT M02/M02 A3029 RMK A01 T10191019  RH  100%=      5-min Rain = 0
KSW1 090855Z 35002KT M02/M02 A3029 RMK A01 T10191019  RH  100%=      5-min Rain = 0
KSW1 090856Z 35002KT M02/M02 A3029 RMK A01 T10201020  RH  100%=      5-min Rain = 0
KSW1 090857Z 35002KT M02/M02 A3028 RMK A01 T10201020  RH  100%=      5-min Rain = 0
KSW1 090858Z 35002KT M02/M02 A3029 RMK A01 T10201020  RH  100%=      5-min Rain = 0
KSW1 090859Z 35002KT M02/M02 A3029 RMK A01 T10211021  RH  100%=      5-min Rain = 0
KSW1 090900Z 35002KT M02/M02 A3029 RMK A01 T10211021  RH  100%=      5-min Rain = 0
KSW1 090901Z 35002KT M02/M02 A3029 RMK A01 T10211021  RH  100%=      5-min Rain = 0
KSW1 090902Z 35002KT M02/M02 A3029 RMK A01 T10211021  RH  100%=      5-min Rain = 0
KSW1 090903Z 35002KT M02/M02 A3029 RMK A01 T10211021  RH  100%=      5-min Rain = 0
KSW1 090904Z 35002KT M02/M02 A3029 RMK A01 T10221022  RH  100%=      5-min Rain = 0
KSW1 090905Z 35002KT M02/M02 A3029 RMK A01 T10211022  RH  100%=      5-min Rain = 0
KSW1 090906Z 35002KT M02/M02 A3029 RMK A01 T10221022  RH  100%=      5-min Rain = 0
KSW1 090907Z 35002KT M02/M02 A3029 RMK A01 T10211021  RH  100%=      5-min Rain = 0
KSW1 090908Z 35002KT M02/M02 A3029 RMK A01 T10211021  RH  100%=      5-min Rain = 0
KSW1 090909Z 35002KT M02/M02 A3029 RMK A01 T10211022  RH  100%=      5-min Rain = 0
KSW1 090910Z 35002KT M02/M02 A3029 RMK A01 T10211022  RH  100%=      5-min Rain = 0
KSW1 090911Z 35002KT M02/M02 A3029 RMK A01 T10221022  RH  100%=      5-min Rain = 0
KSW1 090912Z 35002KT M02/M02 A3029 RMK A01 T10221022  RH  100%=      5-min Rain = 0
KSW1 090913Z 35002KT M02/M02 A3029 RMK A01 T10221022  RH  100%=      5-min Rain = 0
KSW1 090914Z 35002KT M02/M02 A3029 RMK A01 T10221022  RH  100%=      5-min Rain = 0
KSW1 090915Z 35002KT M02/M02 A3029 RMK A01 T10221022  RH  100%=      5-min Rain = 0
KSW1 090916Z 35002KT M02/M02 A3029 RMK A01 T10221022  RH  100%=      5-min Rain = 0
KSW1 090917Z 35002KT M02/M02 A3029 RMK A01 T10221022  RH  100%=      5-min Rain = 0
KSW1 090918Z 35002KT M02/M02 A3029 RMK A01 T10221022  RH  100%=      5-min Rain = 0
KSW1 090919Z 35002KT M02/M02 A3029 RMK A01 T10221022  RH  100%=      5-min Rain = 0
KSW1 090920Z 35002KT M02/M02 A3029 RMK A01 T10221022  RH  100%=      5-min Rain = 0
KSW1 090921Z 35002KT M02/M02 A3029 RMK A01 T10221022  RH  100%=      5-min Rain = 0
KSW1 090922Z 35002KT M02/M02 A3029 RMK A01 T10221022  RH  100%=      5-min Rain = 0
KSW1 090923Z 34002KT M02/M02 A3029 RMK A01 T10221022  RH  100%=      5-min Rain = 0
KSW1 090924Z 34002KT M02/M02 A3029 RMK A01 T10221022  RH  100%=      5-min Rain = 0
KSW1 090925Z 34002KT M02/M02 A3029 RMK A01 T10221022  RH  100%=      5-min Rain = 0
KSW1 090926Z 34002KT M02/M02 A3029 RMK A01 T10221022  RH  100%=      5-min Rain = 0
KSW1 090927Z 34002KT M02/M02 A3029 RMK A01 T10221022  RH  100%=      5-min Rain = 0
KSW1 090928Z 34002KT M02/M02 A303 RMK A01 T10221022  RH  100%=      5-min Rain = 0
KSW1 090929Z 34002KT M02/M02 A303 RMK A01 T10221022  RH  100%=      5-min Rain = 0
KSW1 090930Z 34002KT M02/M02 A303 RMK A01 T10221022  RH  100%=      5-min Rain = 0
KSW1 090931Z 34002KT M02/M02 A303 RMK A01 T10221022  RH  100%=      5-min Rain = 0
KSW1 090932Z 34002KT M02/M02 A303 RMK A01 T10221022  RH  100%=      5-min Rain = 0
KSW1 090933Z 34002KT M02/M02 A303 RMK A01 T10221022  RH  100%=      5-min Rain = 0
KSW1 090934Z 34002KT M02/M02 A303 RMK A01 T10221022  RH  100%=      5-min Rain = 0
KSW1 090935Z 34002KT M02/M02 A303 RMK A01 T10221022  RH  100%=      5-min Rain = 0
KSW1 090936Z 34002KT M02/M02 A303 RMK A01 T10221022  RH  100%=      5-min Rain = 0
KSW1 090937Z 34002KT M02/M02 A303 RMK A01 T10221022  RH  100%=      5-min Rain = 0
KSW1 090938Z 34002KT M02/M02 A303 RMK A01 T10221022  RH  100%=      5-min Rain = 0
KSW1 090939Z 34002KT M02/M02 A303 RMK A01 T10211021  RH  100%=      5-min Rain = 0
KSW1 090940Z 34002KT M02/M02 A303 RMK A01 T10211021  RH  100%=      5-min Rain = 0
KSW1 090941Z 34002KT M02/M02 A303 RMK A01 T10211021  RH  100%=      5-min Rain = 0
KSW1 090942Z 34002KT M02/M02 A303 RMK A01 T10201020  RH  100%=      5-min Rain = 0
KSW1 090943Z 34002KT M02/M02 A303 RMK A01 T10201020  RH  100%=      5-min Rain = 0
KSW1 090944Z 34002KT M02/M02 A303 RMK A01 T10201020  RH  100%=      5-min Rain = 0
KSW1 090945Z 34002KT M02/M02 A303 RMK A01 T10201020  RH  100%=      5-min Rain = 0
KSW1 090946Z 34002KT M02/M02 A303 RMK A01 T10201020  RH  100%=      5-min Rain = 0
KSW1 090947Z 34002KT M02/M02 A303 RMK A01 T10201020  RH  100%=      5-min Rain = 0
KSW1 090948Z 33002KT M02/M02 A303 RMK A01 T10191019  RH  100%=      5-min Rain = 0
KSW1 090949Z 33003KT M02/M02 A303 RMK A01 T10191019  RH  100%=      5-min Rain = 0
KSW1 090950Z 33003KT M02/M02 A303 RMK A01 T10181018  RH  100%=      5-min Rain = 0
KSW1 090951Z 34002KT M02/M02 A303 RMK A01 T10181018  RH  100%=      5-min Rain = 0
KSW1 090952Z 34002KT M02/M02 A303 RMK A01 T10171017  RH  100%=      5-min Rain = 0
KSW1 090953Z 33002KT M02/M02 A303 RMK A01 T10171017  RH  100%=      5-min Rain = 0
KSW1 090954Z 34002KT M02/M02 A303 RMK A01 T10161017  RH  100%=      5-min Rain = 0
KSW1 090955Z 34002KT M02/M02 A303 RMK A01 T10161016  RH  100%=      5-min Rain = 0
KSW1 090956Z 33002KT M02/M02 A303 RMK A01 T10171017  RH  100%=      5-min Rain = 0
KSW1 090957Z 34003KT M02/M02 A303 RMK A01 T10161016  RH  100%=      5-min Rain = 0
KSW1 090958Z 33002KT M02/M02 A303 RMK A01 T10161017  RH  100%=      5-min Rain = 0
KSW1 090959Z 33002KT M02/M02 A303 RMK A01 T10161017  RH  100%=      5-min Rain = 0
KSW1 091000Z 33002KT M02/M02 A303 RMK A01 T10171017  RH  100%=      5-min Rain = 0
KSW1 091001Z 33003KT M02/M02 A303 RMK A01 T10161016  RH  100%=      5-min Rain = 0
KSW1 091002Z 34003KT M02/M02 A303 RMK A01 T10161017  RH  100%=      5-min Rain = 0
KSW1 091003Z 34003KT M02/M02 A303 RMK A01 T10151016  RH  100%=      5-min Rain = 0
KSW1 091004Z 33003KT M02/M02 A303 RMK A01 T10151015  RH  100%=      5-min Rain = 0
KSW1 091005Z 33003KT M02/M02 A303 RMK A01 T10151015  RH  100%=      5-min Rain = 0
KSW1 091006Z 33003KT M02/M02 A303 RMK A01 T10151015  RH  100%=      5-min Rain = 0
KSW1 091007Z 33003KT M02/M02 A303 RMK A01 T10151015  RH  100%=      5-min Rain = 0
KSW1 091008Z 33003KT M01/M02 A303 RMK A01 T10141015  RH  100%=      5-min Rain = 0
KSW1 091009Z 33003KT M01/M02 A303 RMK A01 T10141015  RH  099%=      5-min Rain = 0
KSW1 091010Z 33003KT M01/M02 A303 RMK A01 T10141015  RH  099%=      5-min Rain = 0
KSW1 091011Z 34003KT M01/M02 A303 RMK A01 T10141016  RH  099%=      5-min Rain = 0
KSW1 091012Z 34003KT M01/M02 A303 RMK A01 T10141015  RH  099%=      5-min Rain = 0
KSW1 091013Z 34003KT M01/M02 A303 RMK A01 T10141016  RH  099%=      5-min Rain = 0
KSW1 091014Z 34003KT M02/M02 A303 RMK A01 T10151016  RH  099%=      5-min Rain = 0
KSW1 091015Z 34003KT M02/M02 A303 RMK A01 T10151016  RH  099%=      5-min Rain = 0
KSW1 091016Z 34003KT M02/M02 A303 RMK A01 T10151016  RH  099%=      5-min Rain = 0
KSW1 091017Z 34002KT M02/M02 A303 RMK A01 T10161017  RH  099%=      5-min Rain = 0
KSW1 091018Z 34002KT M02/M02 A303 RMK A01 T10161017  RH  099%=      5-min Rain = 0
KSW1 091019Z 34002KT M02/M02 A303 RMK A01 T10161017  RH  099%=      5-min Rain = 0
KSW1 091020Z 34002KT M02/M02 A303 RMK A01 T10171018  RH  099%=      5-min Rain = 0
KSW1 091021Z 34002KT M02/M02 A303 RMK A01 T10171018  RH  099%=      5-min Rain = 0
KSW1 091022Z 34002KT M02/M02 A303 RMK A01 T10181019  RH  099%=      5-min Rain = 0
KSW1 091023Z 34002KT M02/M02 A303 RMK A01 T10181019  RH  099%=      5-min Rain = 0
KSW1 091024Z 34003KT M02/M02 A303 RMK A01 T10181018  RH  099%=      5-min Rain = 0
KSW1 091025Z 34003KT M02/M02 A303 RMK A01 T10181019  RH  099%=      5-min Rain = 0
KSW1 091026Z 34002KT M02/M02 A303 RMK A01 T10181019  RH  099%=      5-min Rain = 0
KSW1 091027Z 34003KT M02/M02 A303 RMK A01 T10181019  RH  099%=      5-min Rain = 0
KSW1 091028Z 34002KT M02/M02 A303 RMK A01 T10181019  RH  100%=      5-min Rain = 0
KSW1 091029Z 34002KT M02/M02 A303 RMK A01 T10181018  RH  100%=      5-min Rain = 0
KSW1 091030Z 34002KT M02/M02 A303 RMK A01 T10181019  RH  099%=      5-min Rain = 0
KSW1 091031Z 34002KT M02/M02 A303 RMK A01 T10181019  RH  099%=      5-min Rain = 0
KSW1 091032Z 34003KT M02/M02 A303 RMK A01 T10181019  RH  099%=      5-min Rain = 0
KSW1 091033Z 34003KT M02/M02 A303 RMK A01 T10181019  RH  099%=      5-min Rain = 0
KSW1 091034Z 34003KT M02/M02 A303 RMK A01 T10181019  RH  100%=      5-min Rain = 0
KSW1 091035Z 34003KT M02/M02 A303 RMK A01 T10181019  RH  099%=      5-min Rain = 0
KSW1 091036Z 34002KT M02/M02 A303 RMK A01 T10181019  RH  099%=      5-min Rain = 0
KSW1 091037Z 34002KT M02/M02 A303 RMK A01 T10181019  RH  099%=      5-min Rain = 0
KSW1 091038Z 34002KT M02/M02 A303 RMK A01 T10181019  RH  099%=      5-min Rain = 0
KSW1 091039Z 34002KT M02/M02 A303 RMK A01 T10181020  RH  099%=      5-min Rain = 0
KSW1 091040Z 34003KT M02/M02 A303 RMK A01 T10191020  RH  099%=      5-min Rain = 0
KSW1 091041Z 35002KT M02/M02 A303 RMK A01 T10191020  RH  099%=      5-min Rain = 0
KSW1 091042Z 35002KT M02/M02 A303 RMK A01 T10191020  RH  099%=      5-min Rain = 0
KSW1 091043Z 35002KT M02/M02 A303 RMK A01 T10201021  RH  099%=      5-min Rain = 0
KSW1 091044Z 35002KT M02/M02 A303 RMK A01 T10201021  RH  099%=      5-min Rain = 0
KSW1 091045Z 35003KT M02/M02 A303 RMK A01 T10201021  RH  099%=      5-min Rain = 0
KSW1 091046Z 35003KT M02/M02 A303 RMK A01 T10211022  RH  099%=      5-min Rain = 0
KSW1 091047Z 35003KT M02/M02 A303 RMK A01 T10211022  RH  099%=      5-min Rain = 0
KSW1 091048Z 35003KT M02/M02 A303 RMK A01 T10211022  RH  099%=      5-min Rain = 0
KSW1 091049Z 34003KT M02/M02 A303 RMK A01 T10211021  RH  100%=      5-min Rain = 0
KSW1 091050Z 35003KT M02/M02 A303 RMK A01 T10211021  RH  100%=      5-min Rain = 0
KSW1 091051Z 34003KT M02/M02 A303 RMK A01 T10211022  RH  099%=      5-min Rain = 0
KSW1 091052Z 34003KT M02/M02 A303 RMK A01 T10201022  RH  099%=      5-min Rain = 0
KSW1 091053Z 34002KT M02/M02 A3031 RMK A01 T10201022  RH  099%=      5-min Rain = 0
KSW1 091054Z 34003KT M02/M02 A3031 RMK A01 T10201022  RH  098%=      5-min Rain = 0
KSW1 091055Z 34003KT M02/M02 A3031 RMK A01 T10201022  RH  098%=      5-min Rain = 0
KSW1 091056Z 34003KT M02/M02 A3031 RMK A01 T10201023  RH  098%=      5-min Rain = 0
KSW1 091057Z 34003KT M02/M02 A3031 RMK A01 T10201023  RH  098%=      5-min Rain = 0
KSW1 091058Z 34003KT M02/M02 A3031 RMK A01 T10191022  RH  098%=      5-min Rain = 0
KSW1 091059Z 35003KT M02/M02 A3031 RMK A01 T10191022  RH  098%=      5-min Rain = 0
KSW1 091100Z 35002KT M02/M02 A3031 RMK A01 T10191022  RH  098%=      5-min Rain = 0
KSW1 091101Z 35003KT M02/M02 A3031 RMK A01 T10191022  RH  097%=      5-min Rain = 0
KSW1 091102Z 35002KT M02/M02 A3031 RMK A01 T10191023  RH  097%=      5-min Rain = 0
KSW1 091103Z 35003KT M02/M02 A3031 RMK A01 T10191023  RH  097%=      5-min Rain = 0
KSW1 091104Z 35003KT M02/M02 A3031 RMK A01 T10191023  RH  097%=      5-min Rain = 0
KSW1 091105Z 35003KT M02/M02 A3031 RMK A01 T10191023  RH  097%=      5-min Rain = 0
KSW1 091106Z 35003KT M02/M02 A3031 RMK A01 T10191024  RH  097%=      5-min Rain = 0
KSW1 091107Z 35003KT M02/M02 A3031 RMK A01 T10191024  RH  097%=      5-min Rain = 0
KSW1 091108Z 35003KT M02/M02 A3031 RMK A01 T10191024  RH  097%=      5-min Rain = 0
KSW1 091109Z 35003KT M02/M02 A3031 RMK A01 T10201024  RH  097%=      5-min Rain = 0
KSW1 091110Z 35003KT M02/M02 A3031 RMK A01 T10191024  RH  097%=      5-min Rain = 0
KSW1 091111Z 35003KT M02/M02 A3031 RMK A01 T10201024  RH  097%=      5-min Rain = 0
KSW1 091112Z 36003KT M02/M03 A3031 RMK A01 T10201025  RH  097%=      5-min Rain = 0
KSW1 091113Z 36003KT M02/M03 A3031 RMK A01 T10201025  RH  097%=      5-min Rain = 0
KSW1 091114Z 35003KT M02/M03 A3031 RMK A01 T10201025  RH  097%=      5-min Rain = 0
KSW1 091115Z 35003KT M02/M03 A3031 RMK A01 T10201025  RH  097%=      5-min Rain = 0
KSW1 091116Z 35003KT M02/M03 A3031 RMK A01 T10211025  RH  097%=      5-min Rain = 0
KSW1 091117Z 35003KT M02/M03 A3031 RMK A01 T10201025  RH  097%=      5-min Rain = 0
KSW1 091118Z 35003KT M02/M03 A3031 RMK A01 T10211025  RH  097%=      5-min Rain = 0
KSW1 091119Z 35003KT M02/M03 A3031 RMK A01 T10201025  RH  097%=      5-min Rain = 0
KSW1 091120Z 35003KT M02/M03 A3031 RMK A01 T10211025  RH  097%=      5-min Rain = 0
KSW1 091121Z 35003KT M02/M03 A3031 RMK A01 T10211025  RH  097%=      5-min Rain = 0
KSW1 091122Z 35003KT M02/M03 A3031 RMK A01 T10201025  RH  097%=      5-min Rain = 0
KSW1 091123Z 35003KT M02/M03 A3032 RMK A01 T10211025  RH  097%=      5-min Rain = 0
KSW1 091124Z 35003KT M02/M03 A3032 RMK A01 T10211025  RH  097%=      5-min Rain = 0
KSW1 091125Z 35003KT M02/M03 A3032 RMK A01 T10211025  RH  097%=      5-min Rain = 0
KSW1 091126Z 35003KT M02/M03 A3032 RMK A01 T10211025  RH  097%=      5-min Rain = 0
KSW1 091127Z 35003KT M02/M03 A3032 RMK A01 T10211025  RH  097%=      5-min Rain = 0
KSW1 091128Z 35003KT M02/M03 A3032 RMK A01 T10211025  RH  097%=      5-min Rain = 0
KSW1 091129Z 35003KT M02/M03 A3032 RMK A01 T10221025  RH  098%=      5-min Rain = 0
KSW1 091130Z 35003KT M02/M03 A3032 RMK A01 T10221025  RH  098%=      5-min Rain = 0
KSW1 091131Z 35003KT M02/M03 A3032 RMK A01 T10221026  RH  098%=      5-min Rain = 0
KSW1 091132Z 35003KT M02/M03 A3032 RMK A01 T10221025  RH  098%=      5-min Rain = 0
KSW1 091133Z 35003KT M02/M03 A3032 RMK A01 T10221025  RH  098%=      5-min Rain = 0
KSW1 091134Z 35003KT M02/M03 A3032 RMK A01 T10231026  RH  098%=      5-min Rain = 0
KSW1 091135Z 35003KT M02/M03 A3032 RMK A01 T10231026  RH  098%=      5-min Rain = 0
KSW1 091136Z 36003KT M02/M03 A3032 RMK A01 T10231025  RH  098%=      5-min Rain = 0
KSW1 091137Z 35003KT M02/M03 A3032 RMK A01 T10231026  RH  098%=      5-min Rain = 0
KSW1 091138Z 35003KT M02/M03 A3032 RMK A01 T10231026  RH  098%=      5-min Rain = 0
KSW1 091139Z 35003KT M02/M03 A3032 RMK A01 T10231026  RH  098%=      5-min Rain = 0
KSW1 091140Z 35003KT M02/M03 A3032 RMK A01 T10231026  RH  098%=      5-min Rain = 0
KSW1 091141Z 35003KT M02/M03 A3032 RMK A01 T10231026  RH  098%=      5-min Rain = 0
KSW1 091142Z 35003KT M02/M03 A3032 RMK A01 T10231026  RH  098%=      5-min Rain = 0
KSW1 091143Z 35003KT M02/M03 A3032 RMK A01 T10231026  RH  098%=      5-min Rain = 0
KSW1 091144Z 35003KT M02/M03 A3032 RMK A01 T10241026  RH  098%=      5-min Rain = 0
KSW1 091145Z 35003KT M02/M03 A3032 RMK A01 T10241026  RH  098%=      5-min Rain = 0
KSW1 091146Z 36003KT M02/M03 A3032 RMK A01 T10241026  RH  098%=      5-min Rain = 0
KSW1 091147Z 35003KT M02/M03 A3032 RMK A01 T10241027  RH  098%=      5-min Rain = 0
KSW1 091148Z 35003KT M02/M03 A3032 RMK A01 T10241027  RH  098%=      5-min Rain = 0
KSW1 091149Z 36003KT M03/M03 A3032 RMK A01 T10251027  RH  098%=      5-min Rain = 0
KSW1 091150Z 35003KT M03/M03 A3032 RMK A01 T10251027  RH  098%=      5-min Rain = 0
KSW1 091151Z 36003KT M03/M03 A3032 RMK A01 T10251027  RH  098%=      5-min Rain = 0
KSW1 091152Z 36003KT M03/M03 A3032 RMK A01 T10251027  RH  098%=      5-min Rain = 0
KSW1 091153Z 36003KT M03/M03 A3032 RMK A01 T10251027  RH  098%=      5-min Rain = 0
KSW1 091154Z 36003KT M03/M03 A3032 RMK A01 T10251028  RH  098%=      5-min Rain = 0
KSW1 091155Z 36003KT M03/M03 A3032 RMK A01 T10251028  RH  098%=      5-min Rain = 0
KSW1 091156Z 00003KT M03/M03 A3032 RMK A01 T10261028  RH  098%=      5-min Rain = 0
KSW1 091157Z 00003KT M03/M03 A3032 RMK A01 T10261028  RH  098%=      5-min Rain = 0
KSW1 091158Z 00003KT M03/M03 A3032 RMK A01 T10261028  RH  098%=      5-min Rain = 0
KSW1 091159Z 00003KT M03/M03 A3032 RMK A01 T10261028  RH  098%=      5-min Rain = 0
KSW1 091200Z 36003KT M03/M03 A3032 RMK A01 T10261028  RH  098%=      5-min Rain = 0
KSW1 091201Z 36003KT M03/M03 A3032 RMK A01 T10261029  RH  098%=      5-min Rain = 0
KSW1 091202Z 36003KT M03/M03 A3032 RMK A01 T10261029  RH  098%=      5-min Rain = 0
KSW1 091203Z 00003KT M03/M03 A3032 RMK A01 T10271030  RH  098%=      5-min Rain = 0
KSW1 091204Z 00003KT M03/M03 A3032 RMK A01 T10271030  RH  098%=      5-min Rain = 0
KSW1 091205Z 00003KT M03/M03 A3032 RMK A01 T10261030  RH  098%=      5-min Rain = 0
KSW1 091206Z 36003KT M03/M03 A3032 RMK A01 T10261030  RH  098%=      5-min Rain = 0
KSW1 091207Z 00003KT M03/M03 A3032 RMK A01 T10271030  RH  098%=      5-min Rain = 0
KSW1 091208Z 01004KT M03/M03 A3032 RMK A01 T10271030  RH  098%=      5-min Rain = 0
KSW1 091209Z 00003KT M03/M03 A3032 RMK A01 T10271030  RH  098%=      5-min Rain = 0
KSW1 091210Z 00003KT M03/M03 A3032 RMK A01 T10271031  RH  098%=      5-min Rain = 0
KSW1 091211Z 00003KT M03/M03 A3032 RMK A01 T10271031  RH  097%=      5-min Rain = 0
KSW1 091212Z 00003KT M03/M03 A3032 RMK A01 T10271031  RH  097%=      5-min Rain = 0
KSW1 091213Z 36003KT M03/M03 A3032 RMK A01 T10271031  RH  097%=      5-min Rain = 0
KSW1 091214Z 36003KT M03/M03 A3032 RMK A01 T10271031  RH  097%=      5-min Rain = 0
KSW1 091215Z 36003KT M03/M03 A3032 RMK A01 T10281032  RH  097%=      5-min Rain = 0
KSW1 091216Z 36003KT M03/M03 A3033 RMK A01 T10281032  RH  097%=      5-min Rain = 0
KSW1 091217Z 00003KT M03/M03 A3033 RMK A01 T10281032  RH  097%=      5-min Rain = 0
KSW1 091218Z 36003KT M03/M03 A3033 RMK A01 T10281032  RH  097%=      5-min Rain = 0
KSW1 091219Z 00003KT M03/M03 A3033 RMK A01 T10281033  RH  097%=      5-min Rain = 0
KSW1 091220Z 36003KT M03/M03 A3033 RMK A01 T10281033  RH  096%=      5-min Rain = 0
KSW1 091221Z 36003KT M03/M03 A3033 RMK A01 T10281033  RH  096%=      5-min Rain = 0
KSW1 091222Z 36003KT M03/M03 A3033 RMK A01 T10281033  RH  096%=      5-min Rain = 0
KSW1 091223Z 36003KT M03/M03 A3033 RMK A01 T10281033  RH  096%=      5-min Rain = 0
KSW1 091224Z 36003KT M03/M03 A3033 RMK A01 T10281034  RH  096%=      5-min Rain = 0
KSW1 091225Z 00003KT M03/M03 A3033 RMK A01 T10281034  RH  096%=      5-min Rain = 0
KSW1 091226Z 36003KT M03/M03 A3033 RMK A01 T10281034  RH  095%=      5-min Rain = 0
KSW1 091227Z 36003KT M03/M03 A3033 RMK A01 T10281034  RH  095%=      5-min Rain = 0
KSW1 091228Z 00003KT M03/M03 A3033 RMK A01 T10281034  RH  095%=      5-min Rain = 0
KSW1 091229Z 00003KT M03/M04 A3033 RMK A01 T10281035  RH  095%=      5-min Rain = 0
KSW1 091230Z 01003KT M03/M04 A3033 RMK A01 T10281035  RH  095%=      5-min Rain = 0
KSW1 091231Z 00003KT M03/M04 A3033 RMK A01 T10281035  RH  095%=      5-min Rain = 0
KSW1 091232Z 00003KT M03/M04 A3033 RMK A01 T10281035  RH  095%=      5-min Rain = 0
KSW1 091233Z 00003KT M03/M04 A3033 RMK A01 T10281036  RH  095%=      5-min Rain = 0
KSW1 091234Z 00003KT M03/M04 A3033 RMK A01 T10291036  RH  095%=      5-min Rain = 0
KSW1 091235Z 00003KT M03/M04 A3033 RMK A01 T10291036  RH  095%=      5-min Rain = 0
KSW1 091236Z 00002KT M03/M04 A3033 RMK A01 T10291037  RH  095%=      5-min Rain = 0
KSW1 091237Z 01002KT M03/M04 A3033 RMK A01 T10301037  RH  095%=      5-min Rain = 0
KSW1 091238Z 01002KT M03/M04 A3033 RMK A01 T10301037  RH  095%=      5-min Rain = 0
KSW1 091239Z 02002KT M03/M04 A3033 RMK A01 T10311038  RH  095%=      5-min Rain = 0
KSW1 091240Z 03001KT M03/M04 A3033 RMK A01 T10311038  RH  095%=      5-min Rain = 0
KSW1 091241Z 03001KT M03/M04 A3033 RMK A01 T10321039  RH  095%=      5-min Rain = 0
KSW1 091242Z 03001KT M03/M04 A3033 RMK A01 T10331040  RH  095%=      5-min Rain = 0
KSW1 091243Z 04001KT M03/M04 A3033 RMK A01 T10341040  RH  095%=      5-min Rain = 0
KSW1 091244Z 03001KT M03/M04 A3033 RMK A01 T10341041  RH  095%=      5-min Rain = 0
KSW1 091245Z 03001KT M04/M04 A3033 RMK A01 T10351041  RH  095%=      5-min Rain = 0
KSW1 091246Z 04001KT M04/M04 A3033 RMK A01 T10351041  RH  095%=      5-min Rain = 0
KSW1 091247Z 04002KT M04/M04 A3033 RMK A01 T10351041  RH  096%=      5-min Rain = 0
KSW1 091248Z 04002KT M04/M04 A3033 RMK A01 T10351041  RH  096%=      5-min Rain = 0
KSW1 091249Z 04001KT M04/M04 A3033 RMK A01 T10351041  RH  096%=      5-min Rain = 0
KSW1 091250Z 04001KT M04/M04 A3033 RMK A01 T10351041  RH  096%=      5-min Rain = 0
KSW1 091251Z 04001KT M04/M04 A3033 RMK A01 T10351042  RH  095%=      5-min Rain = 0
KSW1 091252Z 05001KT M04/M04 A3033 RMK A01 T10351041  RH  095%=      5-min Rain = 0
KSW1 091253Z 05001KT M04/M04 A3033 RMK A01 T10351042  RH  095%=      5-min Rain = 0
KSW1 091254Z 04002KT M04/M04 A3033 RMK A01 T10351042  RH  095%=      5-min Rain = 0
KSW1 091255Z 04001KT M04/M04 A3033 RMK A01 T10351042  RH  095%=      5-min Rain = 0
KSW1 091256Z 04002KT M04/M04 A3033 RMK A01 T10351042  RH  095%=      5-min Rain = 0
KSW1 091257Z 03001KT M04/M04 A3033 RMK A01 T10351042  RH  095%=      5-min Rain = 0
KSW1 091258Z 03001KT M04/M04 A3033 RMK A01 T10351042  RH  095%=      5-min Rain = 0
KSW1 091259Z 02001KT M04/M04 A3033 RMK A01 T10351042  RH  095%=      5-min Rain = 0
KSW1 091300Z 02002KT M03/M04 A3034 RMK A01 T10341041  RH  095%=      5-min Rain = 0
KSW1 091301Z 01002KT M04/M04 A3034 RMK A01 T10351041  RH  095%=      5-min Rain = 0
KSW1 091302Z 01002KT M03/M04 A3034 RMK A01 T10341041  RH  095%=      5-min Rain = 0
KSW1 091303Z 01002KT M03/M04 A3034 RMK A01 T10341041  RH  095%=      5-min Rain = 0
KSW1 091304Z 01002KT M03/M04 A3034 RMK A01 T10331040  RH  095%=      5-min Rain = 0
KSW1 091305Z 01002KT M03/M04 A3034 RMK A01 T10331040  RH  095%=      5-min Rain = 0
KSW1 091306Z 00002KT M03/M04 A3034 RMK A01 T10331040  RH  095%=      5-min Rain = 0
KSW1 091307Z 00001KT M03/M04 A3034 RMK A01 T10331041  RH  095%=      5-min Rain = 0
KSW1 091308Z 36002KT M03/M04 A3034 RMK A01 T10331041  RH  095%=      5-min Rain = 0
KSW1 091309Z 36001KT M03/M04 A3034 RMK A01 T10331041  RH  095%=      5-min Rain = 0
KSW1 091310Z 36001KT M03/M04 A3034 RMK A01 T10331040  RH  095%=      5-min Rain = 0
KSW1 091311Z 35001KT M03/M04 A3034 RMK A01 T10331040  RH  095%=      5-min Rain = 0
KSW1 091312Z 35001KT M03/M04 A3034 RMK A01 T10331040  RH  095%=      5-min Rain = 0
KSW1 091313Z 36001KT M03/M04 A3034 RMK A01 T10341040  RH  095%=      5-min Rain = 0
KSW1 091314Z 35001KT M03/M04 A3035 RMK A01 T10331040  RH  095%=      5-min Rain = 0
KSW1 091315Z 35001KT M03/M04 A3035 RMK A01 T10331040  RH  095%=      5-min Rain = 0
KSW1 091316Z 00002KT M03/M04 A3035 RMK A01 T10331040  RH  095%=      5-min Rain = 0
KSW1 091317Z 36001KT M03/M04 A3035 RMK A01 T10331040  RH  096%=      5-min Rain = 0
KSW1 091318Z 00001KT M03/M04 A3035 RMK A01 T10331039  RH  096%=      5-min Rain = 0
KSW1 091319Z 01001KT M03/M04 A3035 RMK A01 T10331040  RH  096%=      5-min Rain = 0
KSW1 091320Z 01002KT M03/M04 A3035 RMK A01 T10341040  RH  096%=      5-min Rain = 0
KSW1 091321Z 01002KT M03/M04 A3035 RMK A01 T10341040  RH  096%=      5-min Rain = 0
KSW1 091322Z 01002KT M03/M04 A3035 RMK A01 T10341040  RH  096%=      5-min Rain = 0
KSW1 091323Z 01002KT M04/M04 A3035 RMK A01 T10351041  RH  096%=      5-min Rain = 0
KSW1 091324Z 01002KT M04/M04 A3035 RMK A01 T10351041  RH  096%=      5-min Rain = 0
KSW1 091325Z 00002KT M04/M04 A3035 RMK A01 T10351041  RH  096%=      5-min Rain = 0
KSW1 091326Z 36002KT M04/M04 A3035 RMK A01 T10351041  RH  096%=      5-min Rain = 0
KSW1 091327Z 00002KT M04/M04 A3035 RMK A01 T10351040  RH  096%=      5-min Rain = 0
KSW1 091328Z 00002KT M04/M04 A3035 RMK A01 T10351040  RH  096%=      5-min Rain = 0
KSW1 091329Z 35001KT M04/M04 A3035 RMK A01 T10351040  RH  096%=      5-min Rain = 0
KSW1 091330Z 36002KT M04/M04 A3035 RMK A01 T10351040  RH  096%=      5-min Rain = 0
KSW1 091331Z 00001KT M04/M04 A3035 RMK A01 T10351040  RH  096%=      5-min Rain = 0
KSW1 091332Z 36001KT M04/M04 A3035 RMK A01 T10351040  RH  096%=      5-min Rain = 0
KSW1 091333Z 36002KT M04/M04 A3035 RMK A01 T10351040  RH  096%=      5-min Rain = 0
KSW1 091334Z 36001KT M04/M04 A3035 RMK A01 T10361041  RH  096%=      5-min Rain = 0
KSW1 091335Z 35002KT M04/M04 A3035 RMK A01 T10361040  RH  097%=      5-min Rain = 0
KSW1 091336Z 36002KT M04/M04 A3035 RMK A01 T10361040  RH  097%=      5-min Rain = 0
KSW1 091337Z 35002KT M04/M04 A3035 RMK A01 T10361041  RH  096%=      5-min Rain = 0
KSW1 091338Z 35002KT M04/M04 A3035 RMK A01 T10361041  RH  096%=      5-min Rain = 0
KSW1 091339Z 35002KT M04/M04 A3035 RMK A01 T10351041  RH  096%=      5-min Rain = 0
KSW1 091340Z 35002KT M04/M04 A3035 RMK A01 T10351041  RH  096%=      5-min Rain = 0
KSW1 091341Z 35002KT M04/M04 A3035 RMK A01 T10351041  RH  096%=      5-min Rain = 0
KSW1 091342Z 35002KT M04/M04 A3035 RMK A01 T10361041  RH  096%=      5-min Rain = 0
KSW1 091343Z 35002KT M04/M04 A3036 RMK A01 T10351041  RH  096%=      5-min Rain = 0
KSW1 091344Z 35002KT M04/M04 A3036 RMK A01 T10351041  RH  096%=      5-min Rain = 0
KSW1 091345Z 34002KT M04/M04 A3036 RMK A01 T10351041  RH  096%=      5-min Rain = 0
KSW1 091346Z 35002KT M04/M04 A3036 RMK A01 T10351040  RH  096%=      5-min Rain = 0
KSW1 091347Z 35002KT M03/M04 A3036 RMK A01 T10341040  RH  096%=      5-min Rain = 0
KSW1 091348Z 34002KT M03/M04 A3036 RMK A01 T10331040  RH  095%=      5-min Rain = 0
KSW1 091349Z 35002KT M03/M04 A3036 RMK A01 T10331039  RH  095%=      5-min Rain = 0
KSW1 091350Z 34002KT M03/M04 A3036 RMK A01 T10321040  RH  095%=      5-min Rain = 0
KSW1 091351Z 35002KT M03/M04 A3036 RMK A01 T10321040  RH  095%=      5-min Rain = 0
KSW1 091352Z 35002KT M03/M04 A3036 RMK A01 T10321040  RH  094%=      5-min Rain = 0
KSW1 091353Z 34002KT M03/M04 A3036 RMK A01 T10321040  RH  094%=      5-min Rain = 0
KSW1 091354Z 34002KT M03/M04 A3036 RMK A01 T10321040  RH  094%=      5-min Rain = 0
KSW1 091355Z 34002KT M03/M04 A3036 RMK A01 T10321040  RH  094%=      5-min Rain = 0
KSW1 091356Z 34002KT M03/M04 A3036 RMK A01 T10311039  RH  094%=      5-min Rain = 0
KSW1 091357Z 34002KT M03/M04 A3036 RMK A01 T10311039  RH  094%=      5-min Rain = 0
KSW1 091358Z 35002KT M03/M04 A3036 RMK A01 T10301039  RH  094%=      5-min Rain = 0
KSW1 091359Z 35002KT M03/M04 A3036 RMK A01 T10301039  RH  094%=      5-min Rain = 0
KSW1 091400Z 35001KT M03/M04 A3036 RMK A01 T10301039  RH  094%=      5-min Rain = 0
KSW1 091401Z 34001KT M03/M04 A3036 RMK A01 T10291038  RH  093%=      5-min Rain = 0
KSW1 091402Z 34001KT M03/M04 A3036 RMK A01 T10281038  RH  093%=      5-min Rain = 0
KSW1 091403Z 34001KT M03/M04 A3036 RMK A01 T10281038  RH  093%=      5-min Rain = 0
KSW1 091404Z 34001KT M03/M04 A3036 RMK A01 T10281037  RH  093%=      5-min Rain = 0
KSW1 091405Z 34001KT M03/M04 A3036 RMK A01 T10271037  RH  093%=      5-min Rain = 0
KSW1 091406Z 34001KT M03/M04 A3036 RMK A01 T10271037  RH  093%=      5-min Rain = 0
KSW1 091407Z 33001KT M03/M04 A3036 RMK A01 T10271036  RH  093%=      5-min Rain = 0
KSW1 091408Z 33001KT M03/M04 A3036 RMK A01 T10261036  RH  093%=      5-min Rain = 0
KSW1 091409Z 34001KT M03/M04 A3036 RMK A01 T10261035  RH  093%=      5-min Rain = 0
KSW1 091410Z 34001KT M03/M04 A3036 RMK A01 T10251035  RH  093%=      5-min Rain = 0
KSW1 091411Z 33002KT M03/M03 A3036 RMK A01 T10251034  RH  093%=      5-min Rain = 0
KSW1 091412Z 34001KT M02/M04 A3036 RMK A01 T10241035  RH  093%=      5-min Rain = 0
KSW1 091413Z 34001KT M02/M04 A3036 RMK A01 T10241035  RH  092%=      5-min Rain = 0
KSW1 091414Z 34001KT M02/M03 A3036 RMK A01 T10231034  RH  092%=      5-min Rain = 0
KSW1 091415Z 34001KT M02/M03 A3036 RMK A01 T10231034  RH  092%=      5-min Rain = 0
KSW1 091416Z 35002KT M02/M04 A3037 RMK A01 T10221035  RH  091%=      5-min Rain = 0
KSW1 091417Z 34002KT M02/M04 A3037 RMK A01 T10221035  RH  091%=      5-min Rain = 0
KSW1 091418Z 34002KT M02/M04 A3037 RMK A01 T10221035  RH  091%=      5-min Rain = 0
KSW1 091419Z 35002KT M02/M04 A3037 RMK A01 T10221035  RH  091%=      5-min Rain = 0
KSW1 091420Z 35002KT M02/M03 A3037 RMK A01 T10221034  RH  091%=      5-min Rain = 0
KSW1 091421Z 35002KT M02/M03 A3037 RMK A01 T10211034  RH  091%=      5-min Rain = 0
KSW1 091422Z 35002KT M02/M03 A3037 RMK A01 T10211034  RH  091%=      5-min Rain = 0
KSW1 091423Z 35002KT M02/M04 A3037 RMK A01 T10211035  RH  090%=      5-min Rain = 0
KSW1 091424Z 34002KT M02/M04 A3037 RMK A01 T10201035  RH  090%=      5-min Rain = 0
KSW1 091425Z 35002KT M02/M03 A3037 RMK A01 T10201034  RH  090%=      5-min Rain = 0
KSW1 091426Z 35002KT M02/M03 A3037 RMK A01 T10191034  RH  090%=      5-min Rain = 0
KSW1 091427Z 35002KT M02/M03 A3037 RMK A01 T10191034  RH  089%=      5-min Rain = 0
KSW1 091428Z 35001KT M02/M04 A3037 RMK A01 T10191035  RH  089%=      5-min Rain = 0
KSW1 091429Z 35002KT M02/M03 A3037 RMK A01 T10181034  RH  089%=      5-min Rain = 0
KSW1 091430Z 35001KT M02/M03 A3037 RMK A01 T10181033  RH  089%=      5-min Rain = 0
KSW1 091431Z 35002KT M02/M03 A3037 RMK A01 T10171033  RH  089%=      5-min Rain = 0
KSW1 091432Z 35002KT M02/M03 A3037 RMK A01 T10171032  RH  089%=      5-min Rain = 0
KSW1 091433Z 35002KT M02/M03 A3037 RMK A01 T10161033  RH  089%=      5-min Rain = 0
KSW1 091434Z 35002KT M02/M03 A3037 RMK A01 T10161033  RH  088%=      5-min Rain = 0
KSW1 091435Z 35002KT M02/M03 A3037 RMK A01 T10161033  RH  088%=      5-min Rain = 0
KSW1 091436Z 35002KT M02/M03 A3037 RMK A01 T10151033  RH  088%=      5-min Rain = 0
KSW1 091437Z 35001KT M02/M04 A3037 RMK A01 T10151035  RH  086%=      5-min Rain = 0
KSW1 091438Z 33001KT M02/M03 A3037 RMK A01 T10151033  RH  087%=      5-min Rain = 0
KSW1 091439Z 35001KT M01/M03 A3037 RMK A01 T10141032  RH  087%=      5-min Rain = 0
KSW1 091440Z 34002KT M01/M03 A3037 RMK A01 T10141033  RH  087%=      5-min Rain = 0
KSW1 091441Z 35001KT M01/M03 A3037 RMK A01 T10141034  RH  086%=      5-min Rain = 0
KSW1 091442Z 35002KT M01/M03 A3037 RMK A01 T10131034  RH  086%=      5-min Rain = 0
KSW1 091443Z 35002KT M01/M04 A3037 RMK A01 T10131035  RH  085%=      5-min Rain = 0
KSW1 091444Z 35002KT M01/M03 A3037 RMK A01 T10131034  RH  085%=      5-min Rain = 0
KSW1 091445Z 34002KT M01/M03 A3037 RMK A01 T10121032  RH  087%=      5-min Rain = 0
KSW1 091446Z 35002KT M01/M03 A3037 RMK A01 T10121030  RH  088%=      5-min Rain = 0
KSW1 091447Z 35002KT M01/M03 A3037 RMK A01 T10121030  RH  088%=      5-min Rain = 0
KSW1 091448Z 35002KT M01/M03 A3037 RMK A01 T10121032  RH  086%=      5-min Rain = 0
KSW1 091449Z 35002KT M01/M03 A3037 RMK A01 T10121034  RH  085%=      5-min Rain = 0
KSW1 091450Z 35002KT M01/M03 A3037 RMK A01 T10121032  RH  086%=      5-min Rain = 0
KSW1 091451Z 35002KT M01/M03 A3037 RMK A01 T10121031  RH  087%=      5-min Rain = 0
KSW1 091452Z 34002KT M01/M03 A3037 RMK A01 T10121032  RH  087%=      5-min Rain = 0
KSW1 091453Z 35002KT M01/M03 A3037 RMK A01 T10121033  RH  086%=      5-min Rain = 0
KSW1 091454Z 35002KT M01/M04 A3037 RMK A01 T10121035  RH  085%=      5-min Rain = 0
KSW1 091455Z 35002KT M01/M04 A3038 RMK A01 T10131035  RH  085%=      5-min Rain = 0
KSW1 091456Z 34002KT M01/M03 A3038 RMK A01 T10131033  RH  086%=      5-min Rain = 0
KSW1 091457Z 34002KT M01/M03 A3038 RMK A01 T10121032  RH  087%=      5-min Rain = 0
KSW1 091458Z 33002KT M01/M03 A3038 RMK A01 T10121031  RH  087%=      5-min Rain = 0
KSW1 091459Z 35002KT M01/M03 A3038 RMK A01 T10121033  RH  085%=      5-min Rain = 0
KSW1 091500Z 34002KT M01/M03 A3038 RMK A01 T10121032  RH  086%=      5-min Rain = 0
KSW1 091501Z 34001KT M01/M03 A3038 RMK A01 T10111030  RH  087%=      5-min Rain = 0
KSW1 091502Z 34002KT M01/M03 A3038 RMK A01 T10111028  RH  088%=      5-min Rain = 0
KSW1 091503Z 34002KT M01/M03 A3038 RMK A01 T10111032  RH  086%=      5-min Rain = 0
KSW1 091504Z 34001KT M01/M03 A3038 RMK A01 T10111032  RH  085%=      5-min Rain = 0
KSW1 091505Z 34002KT M01/M03 A3038 RMK A01 T10101029  RH  087%=      5-min Rain = 0
KSW1 091506Z 34002KT M01/M03 A3038 RMK A01 T10101030  RH  086%=      5-min Rain = 0
KSW1 091507Z 34002KT M01/M03 A3038 RMK A01 T10091030  RH  086%=      5-min Rain = 0
KSW1 091508Z 35002KT M01/M03 A3038 RMK A01 T10091031  RH  085%=      5-min Rain = 0
KSW1 091509Z 35002KT M01/M03 A3039 RMK A01 T10081031  RH  085%=      5-min Rain = 0
KSW1 091510Z 34002KT M01/M03 A3039 RMK A01 T10081031  RH  085%=      5-min Rain = 0
KSW1 091511Z 35001KT M01/M03 A3039 RMK A01 T10081029  RH  085%=      5-min Rain = 0
KSW1 091512Z 35001KT M01/M03 A3039 RMK A01 T10071025  RH  087%=      5-min Rain = 0
KSW1 091513Z 34002KT M01/M02 A3039 RMK A01 T10061023  RH  088%=      5-min Rain = 0
KSW1 091514Z 35002KT M01/M02 A3039 RMK A01 T10051024  RH  087%=      5-min Rain = 0
KSW1 091515Z 36003KT M01/M03 A3039 RMK A01 T10051026  RH  086%=      5-min Rain = 0
KSW1 091516Z 35002KT M01/M03 A304 RMK A01 T10051030  RH  083%=      5-min Rain = 0
KSW1 091517Z 35002KT M01/M03 A304 RMK A01 T10051033  RH  082%=      5-min Rain = 0
KSW1 091518Z 36003KT M01/M03 A304 RMK A01 T10051033  RH  081%=      5-min Rain = 0
KSW1 091519Z 35002KT M01/M03 A304 RMK A01 T10051031  RH  082%=      5-min Rain = 0
KSW1 091520Z 34003KT M01/M03 A304 RMK A01 T10051032  RH  082%=      5-min Rain = 0
KSW1 091521Z 35002KT M01/M03 A304 RMK A01 T10051034  RH  081%=      5-min Rain = 0
KSW1 091522Z 35003KT M01/M03 A304 RMK A01 T10051033  RH  081%=      5-min Rain = 0
KSW1 091523Z 35003KT M00/M03 A304 RMK A01 T10041034  RH  081%=      5-min Rain = 0
KSW1 091524Z 36004KT M00/M04 A304 RMK A01 T10041036  RH  079%=      5-min Rain = 0
KSW1 091525Z 36003KT M00/M04 A304 RMK A01 T10041037  RH  078%=      5-min Rain = 0
KSW1 091526Z 00003KT M00/M04 A304 RMK A01 T10041037  RH  079%=      5-min Rain = 0
KSW1 091527Z 35003KT M00/M03 A304 RMK A01 T10041034  RH  080%=      5-min Rain = 0
KSW1 091528Z 36003KT M00/M04 A304 RMK A01 T10041036  RH  079%=      5-min Rain = 0
KSW1 091529Z 00002KT M00/M04 A304 RMK A01 T10041039  RH  077%=      5-min Rain = 0
KSW1 091530Z 00003KT M00/M04 A304 RMK A01 T10031037  RH  078%=      5-min Rain = 0
KSW1 091531Z 00002KT M00/M04 A304 RMK A01 T10031036  RH  078%=      5-min Rain = 0
KSW1 091532Z 36002KT M00/M03 A304 RMK A01 T10021032  RH  080%=      5-min Rain = 0
KSW1 091533Z 00002KT M00/M03 A304 RMK A01 T10021033  RH  080%=      5-min Rain = 0
KSW1 091534Z 01003KT M00/M04 A304 RMK A01 T10021035  RH  078%=      5-min Rain = 0
KSW1 091535Z 35003KT M00/M04 A304 RMK A01 T10011035  RH  078%=      5-min Rain = 0
KSW1 091536Z 35003KT M00/M04 A304 RMK A01 T10021036  RH  078%=      5-min Rain = 0
KSW1 091537Z 35002KT M00/M03 A304 RMK A01 T10011033  RH  079%=      5-min Rain = 0
KSW1 091538Z 35003KT M00/M03 A304 RMK A01 T10011033  RH  079%=      5-min Rain = 0
KSW1 091539Z 36002KT M00/M03 A304 RMK A01 T10011033  RH  079%=      5-min Rain = 0
KSW1 091540Z 35002KT 00/03 A304 RMK A01 T00-00-32  RH  079%=      5-min Rain = 0
KSW1 091541Z 01003KT 00/03 A304 RMK A01 T00000-31  RH  080%=      5-min Rain = 0
KSW1 091542Z 01002KT 00/03 A304 RMK A01 T00000-30  RH  080%=      5-min Rain = 0
KSW1 091543Z 36002KT 00/M03 A304 RMK A01 T00011029  RH  080%=      5-min Rain = 0
KSW1 091544Z 00002KT 00/M03 A304 RMK A01 T00021027  RH  081%=      5-min Rain = 0
KSW1 091545Z 02003KT 00/M03 A304 RMK A01 T00021031  RH  079%=      5-min Rain = 0
KSW1 091546Z 02002KT 00/M03 A304 RMK A01 T00021031  RH  079%=      5-min Rain = 0
KSW1 091547Z 01002KT 00/M03 A304 RMK A01 T00021030  RH  079%=      5-min Rain = 0
KSW1 091548Z 01002KT 00/M03 A304 RMK A01 T00021030  RH  079%=      5-min Rain = 0
KSW1 091549Z 00002KT 00/M03 A304 RMK A01 T00031026  RH  081%=      5-min Rain = 0
KSW1 091550Z 35003KT 00/M03 A304 RMK A01 T00031029  RH  079%=      5-min Rain = 0
KSW1 091551Z 35002KT 00/M03 A304 RMK A01 T00031028  RH  079%=      5-min Rain = 0
KSW1 091552Z 35003KT 00/M03 A304 RMK A01 T00031029  RH  079%=      5-min Rain = 0
KSW1 091553Z 35003KT 00/M03 A304 RMK A01 T00031032  RH  077%=      5-min Rain = 0
KSW1 091554Z 35003KT 00/M03 A304 RMK A01 T00031032  RH  077%=      5-min Rain = 0
KSW1 091555Z 35002KT 00/M03 A304 RMK A01 T00041031  RH  077%=      5-min Rain = 0
KSW1 091556Z 34002KT 01/M03 A304 RMK A01 T00051027  RH  079%=      5-min Rain = 0
KSW1 091557Z 34003KT 01/M03 A304 RMK A01 T00051028  RH  079%=      5-min Rain = 0
KSW1 091558Z 34003KT 01/M03 A304 RMK A01 T00051029  RH  077%=      5-min Rain = 0
KSW1 091559Z 35003KT 01/M04 A304 RMK A01 T00051035  RH  075%=      5-min Rain = 0
KSW1 091600Z 35003KT 01/M03 A304 RMK A01 T00051032  RH  076%=      5-min Rain = 0
KSW1 091601Z 36003KT 01/M03 A304 RMK A01 T00061031  RH  076%=      5-min Rain = 0
KSW1 091602Z 36003KT 01/M03 A304 RMK A01 T00061034  RH  074%=      5-min Rain = 0
KSW1 091603Z 34003KT 01/M03 A304 RMK A01 T00071029  RH  077%=      5-min Rain = 0
KSW1 091604Z 34004KT 01/M03 A304 RMK A01 T00071031  RH  076%=      5-min Rain = 0
KSW1 091605Z 35004KT 01/M04 A304 RMK A01 T00071036  RH  073%=      5-min Rain = 0
KSW1 091606Z 34004KT 01/M04 A304 RMK A01 T00071038  RH  072%=      5-min Rain = 0
KSW1 091607Z 35004KT 01/M04 A304 RMK A01 T00071037  RH  072%=      5-min Rain = 0
KSW1 091608Z 35004KT 01/M04 A304 RMK A01 T00061038  RH  072%=      5-min Rain = 0
KSW1 091609Z 35004KT 01/M04 A304 RMK A01 T00061036  RH  073%=      5-min Rain = 0
KSW1 091610Z 34004KT 01/M03 A304 RMK A01 T00071033  RH  075%=      5-min Rain = 0
KSW1 091611Z 35005KT 01/M03 A304 RMK A01 T00081032  RH  075%=      5-min Rain = 0
KSW1 091612Z 35005KT 01/M04 A3041 RMK A01 T00081035  RH  073%=      5-min Rain = 0
KSW1 091613Z 35004KT 01/M04 A3041 RMK A01 T00081036  RH  072%=      5-min Rain = 0
KSW1 091614Z 34004KT 01/M04 A3041 RMK A01 T00081036  RH  072%=      5-min Rain = 0
KSW1 091615Z 35004KT 01/M04 A3041 RMK A01 T00081035  RH  073%=      5-min Rain = 0
KSW1 091616Z 34004KT 01/M04 A3041 RMK A01 T00081036  RH  072%=      5-min Rain = 0
KSW1 091617Z 35004KT 01/M03 A3041 RMK A01 T00091034  RH  073%=      5-min Rain = 0
KSW1 091618Z 35004KT 01/M03 A3041 RMK A01 T00091034  RH  073%=      5-min Rain = 0
KSW1 091619Z 35004KT 01/M03 A3041 RMK A01 T00101034  RH  072%=      5-min Rain = 0
KSW1 091620Z 35004KT 01/M03 A3041 RMK A01 T00101034  RH  073%=      5-min Rain = 0
KSW1 091621Z 35005KT 01/M04 A3041 RMK A01 T00101036  RH  072%=      5-min Rain = 0
KSW1 091622Z 35004KT 01/M04 A3041 RMK A01 T00101040  RH  069%=      5-min Rain = 0
KSW1 091623Z 35004KT 01/M04 A3041 RMK A01 T00101039  RH  070%=      5-min Rain = 0
KSW1 091624Z 34003KT 01/M04 A3041 RMK A01 T00101036  RH  071%=      5-min Rain = 0
KSW1 091625Z 34003KT 01/M03 A3041 RMK A01 T00111034  RH  072%=      5-min Rain = 0
KSW1 091626Z 34003KT 01/M03 A3041 RMK A01 T00121034  RH  071%=      5-min Rain = 0
KSW1 091627Z 34004KT 01/M04 A3041 RMK A01 T00131035  RH  071%=      5-min Rain = 0
KSW1 091628Z 35004KT 01/M04 A3041 RMK A01 T00131037  RH  069%=      5-min Rain = 0
KSW1 091629Z 34003KT 01/M04 A3041 RMK A01 T00131036  RH  070%=      5-min Rain = 0
KSW1 091630Z 35003KT 01/M03 A3041 RMK A01 T00141033  RH  071%=      5-min Rain = 0
KSW1 091631Z 36005KT 02/M03 A3041 RMK A01 T00151034  RH  070%=      5-min Rain = 0
KSW1 091632Z 35003KT 02/M04 A3041 RMK A01 T00151040  RH  067%=      5-min Rain = 0
KSW1 091633Z 35004KT 02/M04 A3041 RMK A01 T00151037  RH  068%=      5-min Rain = 0
KSW1 091634Z 35004KT 02/M04 A3041 RMK A01 T00161036  RH  069%=      5-min Rain = 0
KSW1 091635Z 35005KT 02/M04 A3041 RMK A01 T00161038  RH  067%=      5-min Rain = 0
KSW1 091636Z 36005KT 02/M04 A3041 RMK A01 T00161042  RH  066%=      5-min Rain = 0
KSW1 091637Z 35004KT 02/M04 A3041 RMK A01 T00151041  RH  066%=      5-min Rain = 0
KSW1 091638Z 36003KT 02/M04 A3041 RMK A01 T00151040  RH  067%=      5-min Rain = 0
KSW1 091639Z 36004KT 02/M04 A3041 RMK A01 T00161037  RH  068%=      5-min Rain = 0
KSW1 091640Z 35003KT 02/M04 A3041 RMK A01 T00171036  RH  068%=      5-min Rain = 0
KSW1 091641Z 34005KT 02/M04 A3041 RMK A01 T00181036  RH  068%=      5-min Rain = 0
KSW1 091642Z 35006KT 02/M04 A3041 RMK A01 T00181041  RH  065%=      5-min Rain = 0
KSW1 091643Z 00005KT 02/M04 A3041 RMK A01 T00181040  RH  065%=      5-min Rain = 0
KSW1 091644Z 35007KT 02/M04 A3041 RMK A01 T00181041  RH  065%=      5-min Rain = 0
KSW1 091645Z 00006KT 02/M05 A3041 RMK A01 T00181048  RH  062%=      5-min Rain = 0
KSW1 091646Z 35006KT 02/M04 A3041 RMK A01 T00171044  RH  064%=      5-min Rain = 0
KSW1 091647Z 01006KT 02/M04 A3041 RMK A01 T00181039  RH  066%=      5-min Rain = 0
KSW1 091648Z 00006KT 02/M04 A3041 RMK A01 T00181043  RH  064%=      5-min Rain = 0
KSW1 091649Z 35006KT 02/M04 A3041 RMK A01 T00191043  RH  064%=      5-min Rain = 0
KSW1 091650Z 36006KT 02/M05 A3041 RMK A01 T00181045  RH  063%=      5-min Rain = 0
KSW1 091651Z 01006KT 02/M05 A3041 RMK A01 T00181045  RH  063%=      5-min Rain = 0
KSW1 091652Z 36005KT 02/M05 A3041 RMK A01 T00181046  RH  062%=      5-min Rain = 0
KSW1 091653Z 35006KT 02/M04 A3041 RMK A01 T00181043  RH  064%=      5-min Rain = 0
KSW1 091654Z 36005KT 02/M04 A3041 RMK A01 T00191039  RH  066%=      5-min Rain = 0
KSW1 091655Z 01006KT 02/M04 A3041 RMK A01 T00201037  RH  066%=      5-min Rain = 0
KSW1 091656Z 35006KT 02/M04 A3041 RMK A01 T00211036  RH  066%=      5-min Rain = 0
KSW1 091657Z 35006KT 02/M04 A3041 RMK A01 T00211040  RH  064%=      5-min Rain = 0
KSW1 091658Z 00005KT 02/M04 A3041 RMK A01 T00211042  RH  063%=      5-min Rain = 0
KSW1 091659Z 36006KT 02/M04 A3041 RMK A01 T00221036  RH  066%=      5-min Rain = 0.01
KSW1 091700Z 36006KT 02/M04 A3041 RMK A01 T00231039  RH  064%=      5-min Rain = 0
KSW1 091701Z 01006KT 02/M04 A3041 RMK A01 T00231037  RH  065%=      5-min Rain = 0
KSW1 091702Z 01009KT 02/M04 A3041 RMK A01 T00231037  RH  065%=      5-min Rain = 0
KSW1 091703Z 01009KT 02/M04 A3041 RMK A01 T00231042  RH  062%=      5-min Rain = 0
KSW1 091704Z 00008KT 02/M04 A3041 RMK A01 T00221041  RH  063%=      5-min Rain = 0
KSW1 091705Z 01008KT 02/M04 A3041 RMK A01 T00221040  RH  063%=      5-min Rain = 0
KSW1 091706Z 36007KT 02/M04 A3041 RMK A01 T00221041  RH  063%=      5-min Rain = 0
KSW1 091707Z 35008KT 02/M04 A3041 RMK A01 T00221043  RH  062%=      5-min Rain = 0
KSW1 091708Z 34007KT 02/M04 A3041 RMK A01 T00221038  RH  065%=      5-min Rain = 0
KSW1 091709Z 35007KT 02/M04 A3041 RMK A01 T00231035  RH  066%=      5-min Rain = 0
KSW1 091710Z 35004KT 02/M04 A3041 RMK A01 T00241036  RH  065%=      5-min Rain = 0.01
KSW1 091711Z 00007KT 03/M03 A3041 RMK A01 T00251027  RH  068%=      5-min Rain = 0
KSW1 091712Z 35008KT 03/M04 A3041 RMK A01 T00261035  RH  064%=      5-min Rain = 0
KSW1 091713Z 35007KT 03/M04 A3041 RMK A01 T00261035  RH  064%=      5-min Rain = 0
KSW1 091714Z 36007KT 03/M04 A3041 RMK A01 T00261039  RH  062%=      5-min Rain = 0
KSW1 091715Z 36008KT 03/M04 A3041 RMK A01 T00251039  RH  063%=      5-min Rain = 0
KSW1 091716Z 36007KT 03/M04 A3041 RMK A01 T00261041  RH  062%=      5-min Rain = 0
KSW1 091717Z 01007KT 03/M04 A3041 RMK A01 T00261037  RH  063%=      5-min Rain = 0
KSW1 091718Z 36009KT 03/M04 A3041 RMK A01 T00271041  RH  061%=      5-min Rain = 0
KSW1 091719Z 35008KT 03/M05 A304 RMK A01 T00251047  RH  059%=      5-min Rain = 0
KSW1 091720Z 36007KT 03/M04 A304 RMK A01 T00251043  RH  061%=      5-min Rain = 0
KSW1 091721Z 01008KT 02/M05 A3041 RMK A01 T00241045  RH  060%=      5-min Rain = 0.01
KSW1 091722Z 35008KT 03/M04 A304 RMK A01 T00251043  RH  061%=      5-min Rain = 0
KSW1 091723Z 35007KT 03/M04 A304 RMK A01 T00251043  RH  061%=      5-min Rain = 0
KSW1 091724Z 01009KT 02/M04 A304 RMK A01 T00241043  RH  061%=      5-min Rain = 0
KSW1 091725Z 34007KT 03/M04 A304 RMK A01 T00251044  RH  060%=      5-min Rain = 0
KSW1 091726Z 35006KT 02/M04 A304 RMK A01 T00241043  RH  061%=      5-min Rain = 0
KSW1 091727Z 00007KT 03/M04 A304 RMK A01 T00251038  RH  063%=      5-min Rain = 0
KSW1 091728Z 36005KT 03/M03 A304 RMK A01 T00271034  RH  064%=      5-min Rain = 0
KSW1 091729Z 01006KT 03/M03 A304 RMK A01 T00281034  RH  063%=      5-min Rain = 0
KSW1 091730Z 00008KT 03/M03 A304 RMK A01 T00291033  RH  064%=      5-min Rain = 0
KSW1 091731Z 00008KT 03/M03 A304 RMK A01 T00301034  RH  063%=      5-min Rain = 0
KSW1 091732Z 01007KT 03/M04 A304 RMK A01 T00291039  RH  061%=      5-min Rain = 0.01
KSW1 091733Z 36007KT 03/M04 A304 RMK A01 T00301037  RH  062%=      5-min Rain = 0
KSW1 091734Z 01008KT 03/M04 A304 RMK A01 T00291041  RH  060%=      5-min Rain = 0
KSW1 091735Z 01007KT 03/M04 A304 RMK A01 T00281041  RH  060%=      5-min Rain = 0
KSW1 091736Z 00008KT 03/M04 A304 RMK A01 T00271040  RH  061%=      5-min Rain = 0
KSW1 091737Z 35007KT 03/M04 A304 RMK A01 T00281036  RH  063%=      5-min Rain = 0
KSW1 091738Z 33007KT 03/M04 A304 RMK A01 T00291038  RH  061%=      5-min Rain = 0
KSW1 091739Z 35007KT 03/M04 A304 RMK A01 T00291039  RH  061%=      5-min Rain = 0
KSW1 091740Z 34006KT 03/M04 A304 RMK A01 T00301040  RH  060%=      5-min Rain = 0
KSW1 091741Z 35008KT 03/M03 A304 RMK A01 T00301033  RH  063%=      5-min Rain = 0
KSW1 091742Z 35006KT 03/M03 A304 RMK A01 T00311034  RH  062%=      5-min Rain = 0
KSW1 091743Z 35006KT 03/M04 A304 RMK A01 T00321039  RH  060%=      5-min Rain = 0.01
KSW1 091744Z 36006KT 03/M04 A304 RMK A01 T00311035  RH  062%=      5-min Rain = 0
KSW1 091745Z 36008KT 03/M03 A304 RMK A01 T00331031  RH  063%=      5-min Rain = 0
KSW1 091746Z 34007KT 03/M04 A304 RMK A01 T00341036  RH  060%=      5-min Rain = 0
KSW1 091747Z 34007KT 03/M04 A304 RMK A01 T00331036  RH  060%=      5-min Rain = 0
KSW1 091748Z 33007KT 03/M03 A304 RMK A01 T00331034  RH  061%=      5-min Rain = 0
KSW1 091749Z 34007KT 03/M04 A304 RMK A01 T00341036  RH  060%=      5-min Rain = 0
KSW1 091750Z 33005KT 03/M04 A304 RMK A01 T00331040  RH  059%=      5-min Rain = 0
KSW1 091751Z 34005KT 03/M04 A304 RMK A01 T00321039  RH  059%=      5-min Rain = 0
KSW1 091752Z 32007KT 03/M03 A304 RMK A01 T00331033  RH  062%=      5-min Rain = 0.01
KSW1 091753Z 32008KT 03/M04 A304 RMK A01 T00331037  RH  060%=      5-min Rain = 0
KSW1 091754Z 33009KT 03/M04 A304 RMK A01 T00331035  RH  061%=      5-min Rain = 0
KSW1 091755Z 32008KT 03/M04 A304 RMK A01 T00331035  RH  061%=      5-min Rain = 0
KSW1 091756Z 33007KT 03/M03 A304 RMK A01 T00331034  RH  061%=      5-min Rain = 0
KSW1 091757Z 33007KT 03/M03 A304 RMK A01 T00341029  RH  063%=      5-min Rain = 0
KSW1 091758Z 32007KT 04/M03 A304 RMK A01 T00371028  RH  063%=      5-min Rain = 0
KSW1 091759Z 34007KT 04/M03 A304 RMK A01 T00371032  RH  061%=      5-min Rain = 0
KSW1 091800Z 35007KT 04/M03 A304 RMK A01 T00371029  RH  062%=      5-min Rain = 0
KSW1 091801Z 01008KT 04/M03 A304 RMK A01 T00381032  RH  060%=      5-min Rain = 0
KSW1 091802Z 01008KT 04/M03 A304 RMK A01 T00381034  RH  060%=      5-min Rain = 0
KSW1 091803Z 36009KT 04/M03 A304 RMK A01 T00381034  RH  059%=      5-min Rain = 0
KSW1 091804Z 34008KT 04/M04 A3039 RMK A01 T00381035  RH  059%=      5-min Rain = 0
KSW1 091805Z 36008KT 04/M03 A3039 RMK A01 T00381032  RH  060%=      5-min Rain = 0
KSW1 091806Z 35009KT 04/M03 A3039 RMK A01 T00391032  RH  060%=      5-min Rain = 0
KSW1 091807Z 34008KT 04/M03 A3039 RMK A01 T00401033  RH  059%=      5-min Rain = 0
KSW1 091808Z 34007KT 04/M04 A3039 RMK A01 T00401035  RH  058%=      5-min Rain = 0
KSW1 091809Z 33008KT 04/M04 A3039 RMK A01 T00401037  RH  058%=      5-min Rain = 0
KSW1 091810Z 36008KT 04/M03 A3039 RMK A01 T00401030  RH  060%=      5-min Rain = 0
KSW1 091811Z 01008KT 04/M03 A3039 RMK A01 T00411030  RH  060%=      5-min Rain = 0.01
KSW1 091812Z 36007KT 04/M03 A3039 RMK A01 T00421034  RH  058%=      5-min Rain = 0
KSW1 091813Z 34007KT 04/M03 A3039 RMK A01 T00421030  RH  059%=      5-min Rain = 0
KSW1 091814Z 34008KT 04/M03 A3039 RMK A01 T00421032  RH  059%=      5-min Rain = 0
KSW1 091815Z 01009KT 04/M03 A3039 RMK A01 T00431027  RH  061%=      5-min Rain = 0.01
KSW1 091816Z 35007KT 04/M03 A3039 RMK A01 T00431031  RH  059%=      5-min Rain = 0
KSW1 091817Z 33008KT 04/M03 A3039 RMK A01 T00421029  RH  060%=      5-min Rain = 0
KSW1 091818Z 35007KT 04/M03 A3039 RMK A01 T00431027  RH  060%=      5-min Rain = 0
KSW1 091819Z 36009KT 04/M03 A3039 RMK A01 T00431027  RH  060%=      5-min Rain = 0
KSW1 091820Z 36007KT 04/M03 A3039 RMK A01 T00431031  RH  058%=      5-min Rain = 0
KSW1 091821Z 35005KT 04/M04 A3039 RMK A01 T00421037  RH  057%=      5-min Rain = 0
KSW1 091822Z 36008KT 04/M03 A3038 RMK A01 T00411032  RH  059%=      5-min Rain = 0
KSW1 091823Z 00009KT 04/M04 A3038 RMK A01 T00421036  RH  057%=      5-min Rain = 0
KSW1 091824Z 01006KT 04/M03 A3038 RMK A01 T00421033  RH  058%=      5-min Rain = 0
KSW1 091825Z 36008KT 04/M03 A3038 RMK A01 T00431032  RH  058%=      5-min Rain = 0
KSW1 091826Z 00009KT 04/M03 A3038 RMK A01 T00431029  RH  060%=      5-min Rain = 0
KSW1 091827Z 36009KT 04/M03 A3038 RMK A01 T00431029  RH  060%=      5-min Rain = 0
KSW1 091828Z 34008KT 04/M03 A3038 RMK A01 T00421030  RH  059%=      5-min Rain = 0.01
KSW1 091829Z 36008KT 04/M03 A3038 RMK A01 T00431027  RH  060%=      5-min Rain = 0
KSW1 091830Z 35008KT 04/M03 A3038 RMK A01 T00441028  RH  060%=      5-min Rain = 0
KSW1 091831Z 35007KT 05/M03 A3038 RMK A01 T00461027  RH  059%=      5-min Rain = 0
KSW1 091832Z 35009KT 05/M03 A3038 RMK A01 T00451033  RH  057%=      5-min Rain = 0
KSW1 091833Z 36008KT 05/M03 A3038 RMK A01 T00451026  RH  060%=      5-min Rain = 0
KSW1 091834Z 35008KT 05/M02 A3038 RMK A01 T00471023  RH  061%=      5-min Rain = 0.01
KSW1 091835Z 36008KT 05/M03 A3038 RMK A01 T00481028  RH  058%=      5-min Rain = 0
KSW1 091836Z 36008KT 05/M03 A3037 RMK A01 T00471030  RH  057%=      5-min Rain = 0
KSW1 091837Z 34009KT 05/M03 A3037 RMK A01 T00461027  RH  059%=      5-min Rain = 0
KSW1 091838Z 34011KT 05/M03 A3037 RMK A01 T00471030  RH  057%=      5-min Rain = 0
KSW1 091839Z 33007KT 05/M03 A3037 RMK A01 T00461034  RH  056%=      5-min Rain = 0
KSW1 091840Z 33009KT 05/M03 A3037 RMK A01 T00461030  RH  058%=      5-min Rain = 0
KSW1 091841Z 33007KT 05/M03 A3037 RMK A01 T00461030  RH  058%=      5-min Rain = 0
KSW1 091842Z 01007KT 05/M03 A3037 RMK A01 T00451029  RH  059%=      5-min Rain = 0
KSW1 091843Z 34008KT 05/M03 A3037 RMK A01 T00461025  RH  060%=      5-min Rain = 0
KSW1 091844Z 35007KT 05/M03 A3037 RMK A01 T00471027  RH  059%=      5-min Rain = 0
KSW1 091845Z 35009KT 05/M03 A3037 RMK A01 T00481026  RH  059%=      5-min Rain = 0
KSW1 091846Z 35005KT 05/M03 A3037 RMK A01 T00481027  RH  058%=      5-min Rain = 0
KSW1 091847Z 00007KT 05/M02 A3037 RMK A01 T00481020  RH  061%=      5-min Rain = 0
KSW1 091848Z 35007KT 05/M02 A3037 RMK A01 T00501024  RH  059%=      5-min Rain = 0
KSW1 091849Z 35006KT 05/M03 A3037 RMK A01 T00491025  RH  059%=      5-min Rain = 0
KSW1 091850Z 01004KT 05/M03 A3037 RMK A01 T00481025  RH  059%=      5-min Rain = 0
KSW1 091851Z 01006KT 05/M03 A3037 RMK A01 T00481025  RH  059%=      5-min Rain = 0
KSW1 091852Z 01003KT 05/M03 A3037 RMK A01 T00471028  RH  058%=      5-min Rain = 0
KSW1 091853Z 01005KT 05/M03 A3037 RMK A01 T00471026  RH  059%=      5-min Rain = 0
KSW1 091854Z 01006KT 05/M02 A3037 RMK A01 T00501019  RH  061%=      5-min Rain = 0
KSW1 091855Z 02006KT 05/M02 A3037 RMK A01 T00531021  RH  059%=      5-min Rain = 0
KSW1 091856Z 01005KT 05/M02 A3037 RMK A01 T00511023  RH  059%=      5-min Rain = 0
KSW1 091857Z 35006KT 05/M02 A3037 RMK A01 T00511022  RH  059%=      5-min Rain = 0
KSW1 091858Z 01006KT 05/M02 A3037 RMK A01 T00501022  RH  059%=      5-min Rain = 0
KSW1 091859Z 00007KT 05/M02 A3037 RMK A01 T00501022  RH  060%=      5-min Rain = 0
KSW1 091900Z 35006KT 05/M02 A3037 RMK A01 T00501023  RH  059%=      5-min Rain = 0
KSW1 091901Z 34005KT 05/M02 A3037 RMK A01 T00511023  RH  059%=      5-min Rain = 0
KSW1 091902Z 02003KT 05/M03 A3037 RMK A01 T00501025  RH  058%=      5-min Rain = 0
KSW1 091903Z 36003KT 05/M02 A3037 RMK A01 T00511019  RH  061%=      5-min Rain = 0
KSW1 091904Z 35006KT 05/M02 A3037 RMK A01 T00531023  RH  058%=      5-min Rain = 0
KSW1 091905Z 01003KT 05/M03 A3037 RMK A01 T00521031  RH  055%=      5-min Rain = 0
KSW1 091906Z 32002KT 05/M03 A3036 RMK A01 T00511027  RH  057%=      5-min Rain = 0
KSW1 091907Z 32000KT 05/M03 A3036 RMK A01 T00501026  RH  058%=      5-min Rain = 0
KSW1 091908Z 32005KT 05/M02 A3036 RMK A01 T00511024  RH  058%=      5-min Rain = 0
KSW1 091909Z 33006KT 05/M02 A3036 RMK A01 T00521024  RH  058%=      5-min Rain = 0
KSW1 091910Z 35004KT 05/M02 A3036 RMK A01 T00521023  RH  059%=      5-min Rain = 0
KSW1 091911Z 33005KT 05/M02 A3036 RMK A01 T00521023  RH  059%=      5-min Rain = 0
KSW1 091912Z 33004KT 05/M02 A3036 RMK A01 T00521024  RH  058%=      5-min Rain = 0
KSW1 091913Z 35007KT 05/M02 A3036 RMK A01 T00511020  RH  060%=      5-min Rain = 0
KSW1 091914Z 01006KT 05/M02 A3036 RMK A01 T00511021  RH  060%=      5-min Rain = 0
KSW1 091915Z 01005KT 05/M02 A3036 RMK A01 T00521023  RH  058%=      5-min Rain = 0
KSW1 091916Z 01005KT 05/M02 A3036 RMK A01 T00511023  RH  059%=      5-min Rain = 0
KSW1 091917Z 33006KT 05/M02 A3036 RMK A01 T00521019  RH  060%=      5-min Rain = 0
KSW1 091918Z 32006KT 05/M02 A3036 RMK A01 T00521021  RH  059%=      5-min Rain = 0
KSW1 091919Z 33005KT 05/M02 A3036 RMK A01 T00501022  RH  060%=      5-min Rain = 0
KSW1 091920Z 35005KT 05/M02 A3036 RMK A01 T00491024  RH  059%=      5-min Rain = 0
KSW1 091921Z 36006KT 05/M02 A3036 RMK A01 T00491023  RH  060%=      5-min Rain = 0
KSW1 091922Z 00006KT 05/M02 A3036 RMK A01 T00501022  RH  060%=      5-min Rain = 0
KSW1 091923Z 33005KT 05/M02 A3036 RMK A01 T00511023  RH  059%=      5-min Rain = 0
KSW1 091924Z 33008KT 05/M02 A3036 RMK A01 T00511017  RH  061%=      5-min Rain = 0
KSW1 091925Z 33008KT 05/M02 A3036 RMK A01 T00521017  RH  061%=      5-min Rain = 0
KSW1 091926Z 33005KT 05/M02 A3036 RMK A01 T00511020  RH  060%=      5-min Rain = 0
KSW1 091927Z 33004KT 05/M02 A3036 RMK A01 T00501020  RH  060%=      5-min Rain = 0
KSW1 091928Z 35005KT 05/M01 A3036 RMK A01 T00521014  RH  063%=      5-min Rain = 0
KSW1 091929Z 34006KT 06/M01 A3036 RMK A01 T00551013  RH  061%=      5-min Rain = 0
KSW1 091930Z 01006KT 06/M02 A3036 RMK A01 T00571015  RH  060%=      5-min Rain = 0
KSW1 091931Z 01006KT 06/M02 A3036 RMK A01 T00571017  RH  059%=      5-min Rain = 0
KSW1 091932Z 35007KT 06/M01 A3035 RMK A01 T00591014  RH  060%=      5-min Rain = 0
KSW1 091933Z 00007KT 06/M02 A3035 RMK A01 T00601018  RH  057%=      5-min Rain = 0
KSW1 091934Z 33005KT 06/M02 A3036 RMK A01 T00591019  RH  057%=      5-min Rain = 0
KSW1 091935Z 33009KT 06/M01 A3035 RMK A01 T00581012  RH  061%=      5-min Rain = 0
KSW1 091936Z 33007KT 06/M01 A3035 RMK A01 T00581013  RH  060%=      5-min Rain = 0
KSW1 091937Z 34007KT 06/M02 A3035 RMK A01 T00561015  RH  060%=      5-min Rain = 0
KSW1 091938Z 33008KT 06/M02 A3035 RMK A01 T00561017  RH  060%=      5-min Rain = 0
KSW1 091939Z 36006KT 06/M01 A3035 RMK A01 T00561013  RH  061%=      5-min Rain = 0
KSW1 091940Z 00005KT 06/M02 A3035 RMK A01 T00581018  RH  058%=      5-min Rain = 0
KSW1 091941Z 00007KT 06/M02 A3035 RMK A01 T00571024  RH  056%=      5-min Rain = 0
KSW1 091942Z 35006KT 06/M02 A3035 RMK A01 T00571016  RH  060%=      5-min Rain = 0
KSW1 091943Z 00007KT 06/M01 A3035 RMK A01 T00591013  RH  060%=      5-min Rain = 0
KSW1 091944Z 36007KT 06/M02 A3035 RMK A01 T00611017  RH  057%=      5-min Rain = 0
KSW1 091945Z 36009KT 06/M02 A3035 RMK A01 T00611018  RH  057%=      5-min Rain = 0
KSW1 091946Z 35007KT 06/M02 A3035 RMK A01 T00601021  RH  056%=      5-min Rain = 0
KSW1 091947Z 00007KT 06/M02 A3035 RMK A01 T00591020  RH  057%=      5-min Rain = 0
KSW1 091948Z 35005KT 06/M02 A3035 RMK A01 T00601015  RH  058%=      5-min Rain = 0
KSW1 091949Z 35006KT 06/M02 A3035 RMK A01 T00621020  RH  056%=      5-min Rain = 0
KSW1 091950Z 34008KT 06/M02 A3035 RMK A01 T00601023  RH  055%=      5-min Rain = 0
KSW1 091951Z 31005KT 06/M03 A3035 RMK A01 T00571029  RH  054%=      5-min Rain = 0
KSW1 091952Z 34004KT 06/M03 A3035 RMK A01 T00551025  RH  056%=      5-min Rain = 0
KSW1 091953Z 34009KT 06/M02 A3035 RMK A01 T00561019  RH  059%=      5-min Rain = 0
KSW1 091954Z 33007KT 06/M02 A3035 RMK A01 T00571021  RH  057%=      5-min Rain = 0
KSW1 091955Z 34005KT 06/M02 A3035 RMK A01 T00571024  RH  056%=      5-min Rain = 0
KSW1 091956Z 35007KT 06/M02 A3035 RMK A01 T00581021  RH  057%=      5-min Rain = 0
KSW1 091957Z 33005KT 06/M03 A3035 RMK A01 T00591025  RH  055%=      5-min Rain = 0
KSW1 091958Z 34007KT 06/M02 A3035 RMK A01 T00571024  RH  056%=      5-min Rain = 0
KSW1 091959Z 35005KT 06/M02 A3035 RMK A01 T00571022  RH  057%=      5-min Rain = 0
KSW1 092000Z 01004KT 06/M02 A3035 RMK A01 T00571024  RH  056%=      5-min Rain = 0
KSW1 092001Z 01005KT 06/M02 A3035 RMK A01 T00581024  RH  056%=      5-min Rain = 0
KSW1 092002Z 33006KT 06/M02 A3035 RMK A01 T00611021  RH  056%=      5-min Rain = 0
KSW1 092003Z 35007KT 06/M02 A3035 RMK A01 T00611022  RH  055%=      5-min Rain = 0
KSW1 092004Z 35006KT 06/M02 A3035 RMK A01 T00601022  RH  056%=      5-min Rain = 0
KSW1 092005Z 33006KT 06/M02 A3035 RMK A01 T00611020  RH  056%=      5-min Rain = 0
KSW1 092006Z 33005KT 06/M02 A3035 RMK A01 T00601021  RH  056%=      5-min Rain = 0
KSW1 092007Z 31003KT 06/M02 A3035 RMK A01 T00571023  RH  056%=      5-min Rain = 0
KSW1 092008Z 29005KT 06/M02 A3035 RMK A01 T00561022  RH  057%=      5-min Rain = 0
KSW1 092009Z 31006KT 06/M02 A3035 RMK A01 T00571019  RH  058%=      5-min Rain = 0
KSW1 092010Z 34006KT 06/M01 A3035 RMK A01 T00591013  RH  060%=      5-min Rain = 0
KSW1 092011Z 33005KT 06/M02 A3035 RMK A01 T00611018  RH  057%=      5-min Rain = 0
KSW1 092012Z 33005KT 06/M02 A3035 RMK A01 T00611016  RH  058%=      5-min Rain = 0
KSW1 092013Z 36007KT 06/M01 A3035 RMK A01 T00621014  RH  058%=      5-min Rain = 0
KSW1 092014Z 35004KT 06/M03 A3035 RMK A01 T00621025  RH  054%=      5-min Rain = 0
KSW1 092015Z 35006KT 06/M02 A3035 RMK A01 T00611022  RH  055%=      5-min Rain = 0
KSW1 092016Z 35006KT 06/M02 A3035 RMK A01 T00611023  RH  055%=      5-min Rain = 0
KSW1 092017Z 34008KT 06/M03 A3035 RMK A01 T00621026  RH  053%=      5-min Rain = 0
KSW1 092018Z 35007KT 06/M03 A3035 RMK A01 T00611028  RH  053%=      5-min Rain = 0
KSW1 092019Z 35004KT 06/M03 A3035 RMK A01 T00611029  RH  052%=      5-min Rain = 0
KSW1 092020Z 00004KT 06/M03 A3035 RMK A01 T00611028  RH  053%=      5-min Rain = 0
KSW1 092021Z 36004KT 06/M03 A3035 RMK A01 T00621031  RH  051%=      5-min Rain = 0
KSW1 092022Z 33006KT 06/M03 A3035 RMK A01 T00621025  RH  053%=      5-min Rain = 0
KSW1 092023Z 34006KT 06/M02 A3035 RMK A01 T00631024  RH  054%=      5-min Rain = 0
KSW1 092024Z 33007KT 06/M02 A3035 RMK A01 T00621021  RH  056%=      5-min Rain = 0
KSW1 092025Z 33007KT 06/M02 A3034 RMK A01 T00621019  RH  056%=      5-min Rain = 0
KSW1 092026Z 33007KT 06/M02 A3034 RMK A01 T00621018  RH  057%=      5-min Rain = 0
KSW1 092027Z 32007KT 06/M02 A3034 RMK A01 T00611020  RH  056%=      5-min Rain = 0
KSW1 092028Z 32006KT 06/M02 A3034 RMK A01 T00601020  RH  056%=      5-min Rain = 0
KSW1 092029Z 31006KT 06/M02 A3034 RMK A01 T00601023  RH  055%=      5-min Rain = 0
KSW1 092030Z 31005KT 06/M03 A3034 RMK A01 T00591025  RH  055%=      5-min Rain = 0
KSW1 092031Z 31004KT 06/M02 A3034 RMK A01 T00581024  RH  056%=      5-min Rain = 0
KSW1 092032Z 33006KT 06/M03 A3034 RMK A01 T00581025  RH  055%=      5-min Rain = 0
KSW1 092033Z 34007KT 06/M02 A3034 RMK A01 T00601024  RH  055%=      5-min Rain = 0
KSW1 092034Z 36005KT 06/M02 A3034 RMK A01 T00611023  RH  055%=      5-min Rain = 0
KSW1 092035Z 35005KT 06/M03 A3034 RMK A01 T00621026  RH  053%=      5-min Rain = 0
KSW1 092036Z 31005KT 06/M02 A3034 RMK A01 T00641022  RH  054%=      5-min Rain = 0
KSW1 092037Z 31005KT 06/M03 A3034 RMK A01 T00641026  RH  053%=      5-min Rain = 0
KSW1 092038Z 32007KT 06/M03 A3034 RMK A01 T00631026  RH  053%=      5-min Rain = 0
KSW1 092039Z 31008KT 06/M03 A3034 RMK A01 T00611025  RH  054%=      5-min Rain = 0
KSW1 092040Z 31006KT 06/M02 A3034 RMK A01 T00611022  RH  055%=      5-min Rain = 0
KSW1 092041Z 32004KT 06/M02 A3034 RMK A01 T00611024  RH  055%=      5-min Rain = 0
KSW1 092042Z 34004KT 06/M02 A3034 RMK A01 T00601024  RH  055%=      5-min Rain = 0
KSW1 092043Z 31006KT 06/M02 A3034 RMK A01 T00611019  RH  057%=      5-min Rain = 0
KSW1 092044Z 29005KT 06/M02 A3034 RMK A01 T00621018  RH  057%=      5-min Rain = 0
KSW1 092045Z 29005KT 06/M02 A3034 RMK A01 T00631022  RH  054%=      5-min Rain = 0
KSW1 092046Z 30005KT 06/M02 A3034 RMK A01 T00641021  RH  055%=      5-min Rain = 0
KSW1 092047Z 33006KT 07/M02 A3034 RMK A01 T00651020  RH  054%=      5-min Rain = 0
KSW1 092048Z 34008KT 07/M02 A3034 RMK A01 T00661019  RH  055%=      5-min Rain = 0
KSW1 092049Z 34006KT 07/M02 A3034 RMK A01 T00661022  RH  053%=      5-min Rain = 0
KSW1 092050Z 33006KT 07/M02 A3034 RMK A01 T00651022  RH  054%=      5-min Rain = 0
KSW1 092051Z 34004KT 06/M03 A3034 RMK A01 T00641025  RH  053%=      5-min Rain = 0
KSW1 092052Z 33006KT 06/M03 A3034 RMK A01 T00641028  RH  052%=      5-min Rain = 0
KSW1 092053Z 33006KT 06/M03 A3034 RMK A01 T00631030  RH  051%=      5-min Rain = 0
KSW1 092054Z 32003KT 06/M03 A3034 RMK A01 T00621031  RH  051%=      5-min Rain = 0
KSW1 092055Z 30004KT 06/M03 A3034 RMK A01 T00621025  RH  054%=      5-min Rain = 0
KSW1 092056Z 30003KT 06/M02 A3034 RMK A01 T00631021  RH  055%=      5-min Rain = 0
KSW1 092057Z 34003KT 06/M02 A3034 RMK A01 T00641024  RH  053%=      5-min Rain = 0
KSW1 092058Z 32004KT 06/M02 A3034 RMK A01 T00641023  RH  054%=      5-min Rain = 0
KSW1 092059Z 30006KT 06/M02 A3034 RMK A01 T00641016  RH  056%=      5-min Rain = 0
KSW1 092100Z 31004KT 07/M01 A3034 RMK A01 T00651010  RH  058%=      5-min Rain = 0
KSW1 092101Z 34006KT 07/M01 A3034 RMK A01 T00671012  RH  057%=      5-min Rain = 0
KSW1 092102Z 34007KT 07/M02 A3034 RMK A01 T00681023  RH  052%=      5-min Rain = 0
KSW1 092103Z 33007KT 07/M03 A3034 RMK A01 T00661027  RH  051%=      5-min Rain = 0
KSW1 092104Z 32006KT 07/M02 A3034 RMK A01 T00651022  RH  054%=      5-min Rain = 0
KSW1 092105Z 32007KT 07/M02 A3034 RMK A01 T00651021  RH  054%=      5-min Rain = 0
KSW1 092106Z 32006KT 06/M02 A3034 RMK A01 T00641023  RH  054%=      5-min Rain = 0
KSW1 092107Z 32007KT 06/M02 A3034 RMK A01 T00641020  RH  055%=      5-min Rain = 0
KSW1 092108Z 33008KT 06/M02 A3034 RMK A01 T00641021  RH  055%=      5-min Rain = 0
KSW1 092109Z 34008KT 07/M03 A3034 RMK A01 T00651025  RH  052%=      5-min Rain = 0
KSW1 092110Z 34006KT 07/M03 A3034 RMK A01 T00661026  RH  052%=      5-min Rain = 0
KSW1 092111Z 34006KT 07/M03 A3034 RMK A01 T00671026  RH  051%=      5-min Rain = 0
KSW1 092112Z 34006KT 07/M03 A3034 RMK A01 T00681026  RH  051%=      5-min Rain = 0
KSW1 092113Z 35008KT 07/M03 A3033 RMK A01 T00661029  RH  051%=      5-min Rain = 0
KSW1 092114Z 35007KT 07/M03 A3034 RMK A01 T00661025  RH  052%=      5-min Rain = 0
KSW1 092115Z 35006KT 07/M03 A3034 RMK A01 T00661025  RH  052%=      5-min Rain = 0
KSW1 092116Z 33006KT 07/M03 A3033 RMK A01 T00661025  RH  052%=      5-min Rain = 0
KSW1 092117Z 34004KT 06/M03 A3033 RMK A01 T00641025  RH  053%=      5-min Rain = 0
KSW1 092118Z 35007KT 06/M02 A3033 RMK A01 T00641021  RH  054%=      5-min Rain = 0
KSW1 092119Z 35006KT 07/M02 A3033 RMK A01 T00661020  RH  054%=      5-min Rain = 0
KSW1 092120Z 36008KT 07/M02 A3033 RMK A01 T00681021  RH  053%=      5-min Rain = 0
KSW1 092121Z 00007KT 07/M02 A3033 RMK A01 T00691024  RH  052%=      5-min Rain = 0
KSW1 092122Z 01004KT 07/M03 A3033 RMK A01 T00681025  RH  051%=      5-min Rain = 0
KSW1 092123Z 35007KT 07/M02 A3033 RMK A01 T00681022  RH  053%=      5-min Rain = 0
KSW1 092124Z 33008KT 07/M02 A3033 RMK A01 T00691020  RH  053%=      5-min Rain = 0
KSW1 092125Z 33007KT 07/M02 A3033 RMK A01 T00691019  RH  054%=      5-min Rain = 0
KSW1 092126Z 34007KT 07/M02 A3033 RMK A01 T00681017  RH  055%=      5-min Rain = 0
KSW1 092127Z 33007KT 07/M02 A3033 RMK A01 T00661022  RH  053%=      5-min Rain = 0
KSW1 092128Z 33007KT 07/M02 A3033 RMK A01 T00651021  RH  054%=      5-min Rain = 0
KSW1 092129Z 33005KT 06/M02 A3033 RMK A01 T00641022  RH  054%=      5-min Rain = 0
KSW1 092130Z 34006KT 06/M02 A3033 RMK A01 T00641018  RH  056%=      5-min Rain = 0
KSW1 092131Z 34006KT 07/M02 A3033 RMK A01 T00651020  RH  055%=      5-min Rain = 0
KSW1 092132Z 33008KT 07/M02 A3033 RMK A01 T00661018  RH  055%=      5-min Rain = 0
KSW1 092133Z 32008KT 07/M02 A3033 RMK A01 T00661020  RH  054%=      5-min Rain = 0
KSW1 092134Z 32007KT 07/M02 A3033 RMK A01 T00651021  RH  054%=      5-min Rain = 0
KSW1 092135Z 33007KT 06/M02 A3033 RMK A01 T00641019  RH  055%=      5-min Rain = 0
KSW1 092136Z 34008KT 07/M02 A3033 RMK A01 T00651017  RH  056%=      5-min Rain = 0
KSW1 092137Z 35007KT 07/M02 A3033 RMK A01 T00661017  RH  055%=      5-min Rain = 0
KSW1 092138Z 35005KT 07/M02 A3033 RMK A01 T00671019  RH  054%=      5-min Rain = 0
KSW1 092139Z 36006KT 07/M02 A3033 RMK A01 T00681018  RH  054%=      5-min Rain = 0
KSW1 092140Z 32008KT 07/M02 A3033 RMK A01 T00691019  RH  054%=      5-min Rain = 0
KSW1 092141Z 33007KT 07/M02 A3033 RMK A01 T00691017  RH  055%=      5-min Rain = 0
KSW1 092142Z 00008KT 07/M02 A3033 RMK A01 T00671017  RH  055%=      5-min Rain = 0
KSW1 092143Z 00005KT 07/M02 A3033 RMK A01 T00671020  RH  054%=      5-min Rain = 0
KSW1 092144Z 35008KT 07/M02 A3033 RMK A01 T00671020  RH  054%=      5-min Rain = 0
KSW1 092145Z 35006KT 07/M02 A3033 RMK A01 T00681020  RH  054%=      5-min Rain = 0
KSW1 092146Z 33007KT 07/M02 A3033 RMK A01 T00681021  RH  053%=      5-min Rain = 0
KSW1 092147Z 33007KT 07/M02 A3033 RMK A01 T00671021  RH  053%=      5-min Rain = 0
KSW1 092148Z 33007KT 07/M02 A3033 RMK A01 T00661019  RH  055%=      5-min Rain = 0
KSW1 092149Z 35007KT 07/M02 A3033 RMK A01 T00651021  RH  054%=      5-min Rain = 0
KSW1 092150Z 36005KT 07/M02 A3034 RMK A01 T00651024  RH  053%=      5-min Rain = 0
KSW1 092151Z 36005KT 07/M02 A3034 RMK A01 T00661022  RH  053%=      5-min Rain = 0
KSW1 092152Z 32006KT 07/M02 A3034 RMK A01 T00671021  RH  053%=      5-min Rain = 0
KSW1 092153Z 34008KT 07/M02 A3033 RMK A01 T00681019  RH  054%=      5-min Rain = 0
KSW1 092154Z 33006KT 07/M02 A3034 RMK A01 T00671023  RH  052%=      5-min Rain = 0
KSW1 092155Z 32007KT 07/M02 A3033 RMK A01 T00671023  RH  053%=      5-min Rain = 0
KSW1 092156Z 32008KT 07/M02 A3033 RMK A01 T00661022  RH  053%=      5-min Rain = 0
KSW1 092157Z 33008KT 07/M02 A3033 RMK A01 T00661022  RH  053%=      5-min Rain = 0
KSW1 092158Z 32008KT 07/M02 A3034 RMK A01 T00661021  RH  054%=      5-min Rain = 0
KSW1 092159Z 32007KT 07/M02 A3034 RMK A01 T00671023  RH  053%=      5-min Rain = 0
KSW1 092200Z 32006KT 07/M02 A3034 RMK A01 T00671021  RH  054%=      5-min Rain = 0
KSW1 092201Z 33007KT 07/M02 A3034 RMK A01 T00661024  RH  052%=      5-min Rain = 0
KSW1 092202Z 34006KT 07/M03 A3034 RMK A01 T00661027  RH  052%=      5-min Rain = 0
KSW1 092203Z 32005KT 07/M03 A3034 RMK A01 T00661028  RH  051%=      5-min Rain = 0
KSW1 092204Z 32005KT 07/M02 A3034 RMK A01 T00661024  RH  053%=      5-min Rain = 0
KSW1 092205Z 33007KT 07/M02 A3034 RMK A01 T00671020  RH  054%=      5-min Rain = 0
KSW1 092206Z 34008KT 07/M03 A3034 RMK A01 T00681030  RH  050%=      5-min Rain = 0
KSW1 092207Z 32008KT 07/M03 A3034 RMK A01 T00661033  RH  049%=      5-min Rain = 0
KSW1 092208Z 33009KT 07/M03 A3034 RMK A01 T00661031  RH  050%=      5-min Rain = 0
KSW1 092209Z 32008KT 07/M03 A3034 RMK A01 T00661031  RH  050%=      5-min Rain = 0
KSW1 092210Z 33007KT 07/M03 A3034 RMK A01 T00651034  RH  049%=      5-min Rain = 0
KSW1 092211Z 32007KT 06/M03 A3034 RMK A01 T00641034  RH  049%=      5-min Rain = 0
KSW1 092212Z 34006KT 07/M04 A3034 RMK A01 T00651036  RH  049%=      5-min Rain = 0
KSW1 092213Z 33007KT 07/M04 A3034 RMK A01 T00651039  RH  048%=      5-min Rain = 0
KSW1 092214Z 33007KT 07/M04 A3034 RMK A01 T00651037  RH  048%=      5-min Rain = 0
KSW1 092215Z 33007KT 07/M04 A3034 RMK A01 T00651038  RH  048%=      5-min Rain = 0
KSW1 092216Z 32007KT 07/M04 A3034 RMK A01 T00651036  RH  049%=      5-min Rain = 0
KSW1 092217Z 33008KT 07/M04 A3034 RMK A01 T00651036  RH  048%=      5-min Rain = 0
KSW1 092218Z 35007KT 07/M04 A3034 RMK A01 T00651035  RH  049%=      5-min Rain = 0
KSW1 092219Z 35007KT 07/M04 A3034 RMK A01 T00651035  RH  049%=      5-min Rain = 0
KSW1 092220Z 34009KT 07/M04 A3034 RMK A01 T00661036  RH  048%=      5-min Rain = 0
KSW1 092221Z 35007KT 07/M04 A3034 RMK A01 T00661038  RH  047%=      5-min Rain = 0
KSW1 092222Z 33006KT 07/M04 A3034 RMK A01 T00661037  RH  048%=      5-min Rain = 0
KSW1 092223Z 33007KT 07/M04 A3034 RMK A01 T00651035  RH  049%=      5-min Rain = 0
KSW1 092224Z 33006KT 07/M04 A3034 RMK A01 T00651038  RH  048%=      5-min Rain = 0
KSW1 092225Z 32008KT 06/M04 A3034 RMK A01 T00641038  RH  048%=      5-min Rain = 0
KSW1 092226Z 32007KT 06/M04 A3034 RMK A01 T00641037  RH  048%=      5-min Rain = 0
KSW1 092227Z 34006KT 06/M04 A3034 RMK A01 T00631036  RH  049%=      5-min Rain = 0
KSW1 092228Z 34005KT 06/M04 A3034 RMK A01 T00631038  RH  048%=      5-min Rain = 0
KSW1 092229Z 33006KT 06/M04 A3034 RMK A01 T00641037  RH  048%=      5-min Rain = 0
KSW1 092230Z 33007KT 06/M03 A3034 RMK A01 T00641034  RH  049%=      5-min Rain = 0
KSW1 092231Z 33007KT 06/M03 A3034 RMK A01 T00641031  RH  051%=      5-min Rain = 0
KSW1 092232Z 34007KT 07/M03 A3034 RMK A01 T00651029  RH  051%=      5-min Rain = 0
KSW1 092233Z 34007KT 07/M04 A3034 RMK A01 T00651038  RH  048%=      5-min Rain = 0
KSW1 092234Z 32008KT 07/M04 A3034 RMK A01 T00651041  RH  047%=      5-min Rain = 0
KSW1 092235Z 32007KT 06/M04 A3034 RMK A01 T00641041  RH  047%=      5-min Rain = 0
KSW1 092236Z 34007KT 06/M04 A3034 RMK A01 T00641037  RH  048%=      5-min Rain = 0
KSW1 092237Z 34007KT 06/M04 A3034 RMK A01 T00641037  RH  048%=      5-min Rain = 0
KSW1 092238Z 34006KT 06/M04 A3034 RMK A01 T00641036  RH  049%=      5-min Rain = 0
KSW1 092239Z 32007KT 06/M03 A3034 RMK A01 T00641034  RH  049%=      5-min Rain = 0
KSW1 092240Z 32008KT 07/M03 A3034 RMK A01 T00651034  RH  049%=      5-min Rain = 0
KSW1 092241Z 33007KT 06/M04 A3034 RMK A01 T00641036  RH  049%=      5-min Rain = 0
KSW1 092242Z 33006KT 06/M04 A3034 RMK A01 T00631038  RH  048%=      5-min Rain = 0
KSW1 092243Z 33006KT 06/M04 A3034 RMK A01 T00621038  RH  049%=      5-min Rain = 0
KSW1 092244Z 32005KT 06/M03 A3034 RMK A01 T00621033  RH  050%=      5-min Rain = 0
KSW1 092245Z 33007KT 06/M03 A3034 RMK A01 T00631029  RH  052%=      5-min Rain = 0
KSW1 092246Z 34007KT 06/M04 A3034 RMK A01 T00631041  RH  047%=      5-min Rain = 0
KSW1 092247Z 34006KT 06/M04 A3034 RMK A01 T00631043  RH  046%=      5-min Rain = 0
KSW1 092248Z 34007KT 06/M04 A3034 RMK A01 T00631043  RH  047%=      5-min Rain = 0
KSW1 092249Z 34006KT 06/M04 A3034 RMK A01 T00631043  RH  047%=      5-min Rain = 0
KSW1 092250Z 34004KT 06/M05 A3034 RMK A01 T00631047  RH  045%=      5-min Rain = 0
KSW1 092251Z 33004KT 06/M04 A3034 RMK A01 T00631039  RH  048%=      5-min Rain = 0
KSW1 092252Z 33006KT 06/M03 A3034 RMK A01 T00631033  RH  050%=      5-min Rain = 0
KSW1 092253Z 33006KT 06/M03 A3034 RMK A01 T00631033  RH  050%=      5-min Rain = 0
KSW1 092254Z 32006KT 06/M03 A3034 RMK A01 T00631033  RH  050%=      5-min Rain = 0
KSW1 092255Z 32004KT 06/M03 A3035 RMK A01 T00631027  RH  053%=      5-min Rain = 0
KSW1 092256Z 32005KT 06/M02 A3035 RMK A01 T00621024  RH  054%=      5-min Rain = 0
KSW1 092257Z 32006KT 06/M03 A3035 RMK A01 T00621032  RH  051%=      5-min Rain = 0
KSW1 092258Z 31006KT 06/M03 A3035 RMK A01 T00611034  RH  050%=      5-min Rain = 0
KSW1 092259Z 31005KT 06/M03 A3035 RMK A01 T00611034  RH  051%=      5-min Rain = 0
KSW1 092300Z 32006KT 06/M03 A3035 RMK A01 T00601031  RH  052%=      5-min Rain = 0
KSW1 092301Z 32006KT 06/M03 A3035 RMK A01 T00601030  RH  052%=      5-min Rain = 0
KSW1 092302Z 33006KT 06/M03 A3035 RMK A01 T00601029  RH  053%=      5-min Rain = 0
KSW1 092303Z 32006KT 06/M03 A3035 RMK A01 T00601030  RH  052%=      5-min Rain = 0
KSW1 092304Z 32006KT 06/M03 A3035 RMK A01 T00591029  RH  053%=      5-min Rain = 0
KSW1 092305Z 32007KT 06/M03 A3035 RMK A01 T00591030  RH  053%=      5-min Rain = 0
KSW1 092306Z 31006KT 06/M03 A3035 RMK A01 T00591030  RH  053%=      5-min Rain = 0
KSW1 092307Z 32005KT 06/M03 A3035 RMK A01 T00581026  RH  055%=      5-min Rain = 0
KSW1 092308Z 31005KT 06/M02 A3035 RMK A01 T00581024  RH  056%=      5-min Rain = 0
KSW1 092309Z 31006KT 06/M03 A3035 RMK A01 T00581026  RH  055%=      5-min Rain = 0
KSW1 092310Z 31006KT 06/M03 A3035 RMK A01 T00581028  RH  054%=      5-min Rain = 0
KSW1 092311Z 32006KT 06/M03 A3035 RMK A01 T00571028  RH  054%=      5-min Rain = 0
KSW1 092312Z 32005KT 06/M03 A3035 RMK A01 T00571026  RH  055%=      5-min Rain = 0
KSW1 092313Z 32005KT 06/M02 A3035 RMK A01 T00561023  RH  057%=      5-min Rain = 0
KSW1 092314Z 32006KT 06/M03 A3035 RMK A01 T00561025  RH  056%=      5-min Rain = 0
KSW1 092315Z 32006KT 06/M03 A3035 RMK A01 T00551027  RH  056%=      5-min Rain = 0
KSW1 092316Z 32006KT 05/M03 A3035 RMK A01 T00541026  RH  056%=      5-min Rain = 0
KSW1 092317Z 32006KT 05/M03 A3035 RMK A01 T00541025  RH  057%=      5-min Rain = 0
KSW1 092318Z 32005KT 05/M03 A3035 RMK A01 T00531026  RH  057%=      5-min Rain = 0
KSW1 092319Z 33004KT 05/M02 A3035 RMK A01 T00531024  RH  058%=      5-min Rain = 0
KSW1 092320Z 32005KT 05/M02 A3035 RMK A01 T00521024  RH  058%=      5-min Rain = 0
KSW1 092321Z 32005KT 05/M03 A3035 RMK A01 T00521025  RH  058%=      5-min Rain = 0
KSW1 092322Z 32005KT 05/M02 A3035 RMK A01 T00511023  RH  059%=      5-min Rain = 0
KSW1 092323Z 32005KT 05/M02 A3035 RMK A01 T00501022  RH  059%=      5-min Rain = 0
KSW1 092324Z 33005KT 05/M02 A3035 RMK A01 T00501021  RH  060%=      5-min Rain = 0
KSW1 092325Z 33005KT 05/M02 A3035 RMK A01 T00491021  RH  060%=      5-min Rain = 0
KSW1 092326Z 33005KT 05/M02 A3035 RMK A01 T00481021  RH  061%=      5-min Rain = 0
KSW1 092327Z 33005KT 05/M02 A3035 RMK A01 T00481021  RH  061%=      5-min Rain = 0
KSW1 092328Z 33005KT 05/M02 A3035 RMK A01 T00471021  RH  062%=      5-min Rain = 0
KSW1 092329Z 33005KT 05/M02 A3035 RMK A01 T00461021  RH  062%=      5-min Rain = 0
KSW1 092330Z 33004KT 05/M02 A3035 RMK A01 T00451021  RH  062%=      5-min Rain = 0
KSW1 092331Z 33004KT 04/M02 A3035 RMK A01 T00441021  RH  062%=      5-min Rain = 0
KSW1 092332Z 34004KT 04/M02 A3035 RMK A01 T00431022  RH  063%=      5-min Rain = 0
KSW1 092333Z 34005KT 04/M02 A3035 RMK A01 T00421022  RH  063%=      5-min Rain = 0
KSW1 092334Z 34004KT 04/M02 A3035 RMK A01 T00411022  RH  064%=      5-min Rain = 0
KSW1 092335Z 34005KT 04/M02 A3035 RMK A01 T00401022  RH  064%=      5-min Rain = 0
KSW1 092336Z 34005KT 04/M02 A3035 RMK A01 T00391023  RH  064%=      5-min Rain = 0
KSW1 092337Z 34005KT 04/M02 A3035 RMK A01 T00381023  RH  064%=      5-min Rain = 0
KSW1 092338Z 34005KT 04/M02 A3035 RMK A01 T00381023  RH  065%=      5-min Rain = 0
KSW1 092339Z 34005KT 04/M02 A3035 RMK A01 T00371023  RH  065%=      5-min Rain = 0
KSW1 092340Z 34006KT 04/M02 A3035 RMK A01 T00361023  RH  065%=      5-min Rain = 0
KSW1 092341Z 34006KT 04/M02 A3035 RMK A01 T00351023  RH  066%=      5-min Rain = 0
KSW1 092342Z 34006KT 03/M02 A3035 RMK A01 T00341023  RH  066%=      5-min Rain = 0
KSW1 092343Z 34006KT 03/M02 A3035 RMK A01 T00341023  RH  066%=      5-min Rain = 0
KSW1 092344Z 34005KT 03/M02 A3035 RMK A01 T00331024  RH  066%=      5-min Rain = 0
KSW1 092345Z 34005KT 03/M02 A3035 RMK A01 T00321024  RH  067%=      5-min Rain = 0
KSW1 092346Z 34005KT 03/M02 A3035 RMK A01 T00311024  RH  067%=      5-min Rain = 0
KSW1 092347Z 34005KT 03/M02 A3035 RMK A01 T00311024  RH  067%=      5-min Rain = 0
KSW1 092348Z 34005KT 03/M02 A3035 RMK A01 T00301024  RH  068%=      5-min Rain = 0
KSW1 092349Z 34005KT 03/M02 A3035 RMK A01 T00301023  RH  068%=      5-min Rain = 0
KSW1 092350Z 34005KT 03/M02 A3035 RMK A01 T00291023  RH  069%=      5-min Rain = 0
KSW1 092351Z 34005KT 03/M02 A3035 RMK A01 T00281023  RH  069%=      5-min Rain = 0
KSW1 092352Z 34005KT 03/M02 A3035 RMK A01 T00271023  RH  069%=      5-min Rain = 0
KSW1 092353Z 34005KT 03/M02 A3035 RMK A01 T00261023  RH  070%=      5-min Rain = 0
KSW1 092354Z 34005KT 03/M02 A3035 RMK A01 T00261023  RH  070%=      5-min Rain = 0
KSW1 092355Z 35005KT 03/M02 A3035 RMK A01 T00261023  RH  070%=      5-min Rain = 0
KSW1 092356Z 35005KT 03/M02 A3035 RMK A01 T00261023  RH  070%=      5-min Rain = 0
KSW1 092357Z 35006KT 02/M02 A3035 RMK A01 T00241023  RH  071%=      5-min Rain = 0
KSW1 092358Z 35006KT 02/M02 A3036 RMK A01 T00241023  RH  071%=      5-min Rain = 0
KSW1 092359Z 34006KT 02/M02 A3036 RMK A01 T00241021  RH  072%=      5-min Rain = 0
KSW1 100000Z 34006KT 02/M02 A3036 RMK A01 T00241019  RH  073%=      5-min Rain = 0
KSW1 100001Z 34006KT 02/M02 A3036 RMK A01 T00241019  RH  073%=      5-min Rain = 0
KSW1 100002Z 34006KT 02/M02 A3036 RMK A01 T00241019  RH  073%=      5-min Rain = 0
KSW1 100003Z 35005KT 02/M02 A3036 RMK A01 T00241018  RH  074%=      5-min Rain = 0
KSW1 100004Z 35005KT 02/M02 A3036 RMK A01 T00241016  RH  075%=      5-min Rain = 0
KSW1 100005Z 35005KT 02/M02 A3036 RMK A01 T00241016  RH  075%=      5-min Rain = 0
KSW1 100006Z 34005KT 02/M02 A3036 RMK A01 T00231015  RH  076%=      5-min Rain = 0
KSW1 100007Z 34005KT 02/M02 A3036 RMK A01 T00241016  RH  075%=      5-min Rain = 0
KSW1 100008Z 34005KT 02/M02 A3036 RMK A01 T00241017  RH  075%=      5-min Rain = 0
KSW1 100009Z 34005KT 02/M02 A3036 RMK A01 T00231018  RH  074%=      5-min Rain = 0
KSW1 100010Z 34005KT 02/M02 A3036 RMK A01 T00241018  RH  074%=      5-min Rain = 0
KSW1 100011Z 35005KT 03/M02 A3036 RMK A01 T00251018  RH  073%=      5-min Rain = 0
KSW1 100012Z 35005KT 03/M02 A3036 RMK A01 T00251019  RH  073%=      5-min Rain = 0
KSW1 100013Z 35005KT 03/M02 A3036 RMK A01 T00251020  RH  072%=      5-min Rain = 0
KSW1 100014Z 35005KT 03/M02 A3036 RMK A01 T00251020  RH  072%=      5-min Rain = 0
KSW1 100015Z 35005KT 03/M02 A3036 RMK A01 T00261021  RH  072%=      5-min Rain = 0
KSW1 100016Z 35005KT 03/M02 A3036 RMK A01 T00261021  RH  072%=      5-min Rain = 0
KSW1 100017Z 35005KT 03/M02 A3036 RMK A01 T00261020  RH  072%=      5-min Rain = 0
KSW1 100018Z 36005KT 03/M02 A3036 RMK A01 T00261020  RH  072%=      5-min Rain = 0
KSW1 100019Z 00005KT 03/M02 A3036 RMK A01 T00261021  RH  071%=      5-min Rain = 0
KSW1 100020Z 00005KT 03/M02 A3036 RMK A01 T00261022  RH  071%=      5-min Rain = 0
KSW1 100021Z 00005KT 03/M02 A3036 RMK A01 T00261021  RH  071%=      5-min Rain = 0
KSW1 100022Z 00005KT 03/M02 A3036 RMK A01 T00261020  RH  072%=      5-min Rain = 0
KSW1 100023Z 00005KT 03/M02 A3036 RMK A01 T00261019  RH  072%=      5-min Rain = 0
KSW1 100024Z 00005KT 03/M02 A3036 RMK A01 T00261020  RH  072%=      5-min Rain = 0
KSW1 100025Z 00006KT 03/M02 A3036 RMK A01 T00261021  RH  071%=      5-min Rain = 0
KSW1 100026Z 00006KT 03/M02 A3036 RMK A01 T00261021  RH  071%=      5-min Rain = 0
KSW1 100027Z 00006KT 03/M02 A3036 RMK A01 T00261022  RH  071%=      5-min Rain = 0
KSW1 100028Z 00006KT 03/M02 A3036 RMK A01 T00251023  RH  071%=      5-min Rain = 0
KSW1 100029Z 01005KT 03/M02 A3036 RMK A01 T00251023  RH  071%=      5-min Rain = 0
KSW1 100030Z 01006KT 02/M02 A3036 RMK A01 T00241024  RH  071%=      5-min Rain = 0
KSW1 100031Z 01006KT 02/M02 A3036 RMK A01 T00241023  RH  071%=      5-min Rain = 0
KSW1 100032Z 01006KT 02/M02 A3036 RMK A01 T00241022  RH  071%=      5-min Rain = 0
KSW1 100033Z 01006KT 02/M02 A3036 RMK A01 T00241022  RH  072%=      5-min Rain = 0
KSW1 100034Z 01006KT 02/M02 A3036 RMK A01 T00231023  RH  072%=      5-min Rain = 0
KSW1 100035Z 01006KT 02/M02 A3036 RMK A01 T00231024  RH  071%=      5-min Rain = 0
KSW1 100036Z 01006KT 02/M03 A3036 RMK A01 T00231025  RH  070%=      5-min Rain = 0
KSW1 100037Z 01007KT 02/M03 A3036 RMK A01 T00231026  RH  070%=      5-min Rain = 0
KSW1 100038Z 01007KT 02/M03 A3036 RMK A01 T00231027  RH  070%=      5-min Rain = 0
KSW1 100039Z 01007KT 02/M03 A3036 RMK A01 T00221028  RH  069%=      5-min Rain = 0
KSW1 100040Z 01007KT 02/M03 A3036 RMK A01 T00221029  RH  069%=      5-min Rain = 0
KSW1 100041Z 01007KT 02/M03 A3036 RMK A01 T00221029  RH  069%=      5-min Rain = 0
KSW1 100042Z 01007KT 02/M03 A3036 RMK A01 T00211029  RH  070%=      5-min Rain = 0
KSW1 100043Z 01008KT 02/M03 A3036 RMK A01 T00201029  RH  070%=      5-min Rain = 0
KSW1 100044Z 01008KT 02/M03 A3036 RMK A01 T00201030  RH  070%=      5-min Rain = 0
KSW1 100045Z 01008KT 02/M03 A3036 RMK A01 T00201031  RH  069%=      5-min Rain = 0
KSW1 100046Z 02008KT 02/M03 A3036 RMK A01 T00191033  RH  068%=      5-min Rain = 0
KSW1 100047Z 02008KT 02/M03 A3036 RMK A01 T00191034  RH  068%=      5-min Rain = 0
KSW1 100048Z 02008KT 02/M04 A3036 RMK A01 T00191035  RH  068%=      5-min Rain = 0
KSW1 100049Z 02008KT 02/M04 A3036 RMK A01 T00191035  RH  067%=      5-min Rain = 0
KSW1 100050Z 01008KT 02/M04 A3036 RMK A01 T00181036  RH  067%=      5-min Rain = 0
KSW1 100051Z 01008KT 02/M04 A3036 RMK A01 T00171037  RH  067%=      5-min Rain = 0
KSW1 100052Z 01008KT 02/M04 A3036 RMK A01 T00171039  RH  067%=      5-min Rain = 0
KSW1 100053Z 01008KT 02/M04 A3036 RMK A01 T00171040  RH  066%=      5-min Rain = 0
KSW1 100054Z 01008KT 02/M04 A3036 RMK A01 T00181041  RH  065%=      5-min Rain = 0
KSW1 100055Z 02008KT 02/M04 A3036 RMK A01 T00181041  RH  065%=      5-min Rain = 0
KSW1 100056Z 02008KT 02/M04 A3036 RMK A01 T00191042  RH  064%=      5-min Rain = 0
KSW1 100057Z 02008KT 02/M04 A3036 RMK A01 T00181042  RH  064%=      5-min Rain = 0
KSW1 100058Z 02008KT 02/M04 A3036 RMK A01 T00181043  RH  064%=      5-min Rain = 0
KSW1 100059Z 02008KT 02/M04 A3036 RMK A01 T00171043  RH  064%=      5-min Rain = 0
KSW1 100100Z 02009KT 02/M04 A3036 RMK A01 T00161044  RH  064%=      5-min Rain = 0
KSW1 100101Z 02009KT 02/M04 A3036 RMK A01 T00161044  RH  064%=      5-min Rain = 0
KSW1 100102Z 02009KT 02/M05 A3037 RMK A01 T00161045  RH  064%=      5-min Rain = 0
KSW1 100103Z 02008KT 02/M05 A3037 RMK A01 T00151045  RH  064%=      5-min Rain = 0
KSW1 100104Z 03008KT 01/M05 A3037 RMK A01 T00141045  RH  065%=      5-min Rain = 0
KSW1 100105Z 03008KT 01/M05 A3037 RMK A01 T00131045  RH  065%=      5-min Rain = 0
KSW1 100106Z 03008KT 01/M05 A3037 RMK A01 T00121045  RH  066%=      5-min Rain = 0
KSW1 100107Z 03008KT 01/M05 A3037 RMK A01 T00121045  RH  066%=      5-min Rain = 0
KSW1 100108Z 03008KT 01/M05 A3037 RMK A01 T00111045  RH  066%=      5-min Rain = 0
KSW1 100109Z 03008KT 01/M04 A3037 RMK A01 T00111044  RH  067%=      5-min Rain = 0
KSW1 100110Z 03008KT 01/M04 A3037 RMK A01 T00111043  RH  067%=      5-min Rain = 0
KSW1 100111Z 03008KT 01/M04 A3037 RMK A01 T00111042  RH  068%=      5-min Rain = 0
KSW1 100112Z 03008KT 01/M04 A3037 RMK A01 T00111041  RH  068%=      5-min Rain = 0
KSW1 100113Z 03008KT 01/M04 A3037 RMK A01 T00101040  RH  069%=      5-min Rain = 0
KSW1 100114Z 03008KT 01/M04 A3037 RMK A01 T00101040  RH  069%=      5-min Rain = 0
KSW1 100115Z 03008KT 01/M04 A3037 RMK A01 T00101040  RH  070%=      5-min Rain = 0
KSW1 100116Z 03008KT 01/M04 A3037 RMK A01 T00091040  RH  070%=      5-min Rain = 0
KSW1 100117Z 03007KT 01/M04 A3037 RMK A01 T00091040  RH  070%=      5-min Rain = 0
KSW1 100118Z 03007KT 01/M04 A3037 RMK A01 T00081040  RH  070%=      5-min Rain = 0
KSW1 100119Z 04007KT 01/M04 A3037 RMK A01 T00081040  RH  070%=      5-min Rain = 0
KSW1 100120Z 04007KT 01/M04 A3037 RMK A01 T00081040  RH  071%=      5-min Rain = 0
KSW1 100121Z 04007KT 01/M04 A3037 RMK A01 T00071039  RH  071%=      5-min Rain = 0
KSW1 100122Z 04007KT 01/M04 A3037 RMK A01 T00071039  RH  071%=      5-min Rain = 0
KSW1 100123Z 04008KT 01/M04 A3037 RMK A01 T00071039  RH  071%=      5-min Rain = 0
KSW1 100124Z 04008KT 01/M04 A3037 RMK A01 T00071039  RH  071%=      5-min Rain = 0
KSW1 100125Z 04008KT 01/M04 A3037 RMK A01 T00061039  RH  071%=      5-min Rain = 0
KSW1 100126Z 04007KT 01/M04 A3037 RMK A01 T00061039  RH  072%=      5-min Rain = 0
KSW1 100127Z 04007KT 01/M04 A3037 RMK A01 T00071039  RH  072%=      5-min Rain = 0
KSW1 100128Z 04007KT 01/M04 A3037 RMK A01 T00061039  RH  072%=      5-min Rain = 0
KSW1 100129Z 04007KT 01/M04 A3037 RMK A01 T00061039  RH  072%=      5-min Rain = 0
KSW1 100130Z 04007KT 01/M04 A3037 RMK A01 T00061039  RH  072%=      5-min Rain = 0
KSW1 100131Z 04008KT 01/M04 A3037 RMK A01 T00061039  RH  072%=      5-min Rain = 0
KSW1 100132Z 04008KT 01/M04 A3037 RMK A01 T00061039  RH  072%=      5-min Rain = 0
KSW1 100133Z 03008KT 01/M04 A3037 RMK A01 T00061039  RH  072%=      5-min Rain = 0
KSW1 100134Z 03008KT 01/M04 A3037 RMK A01 T00061039  RH  071%=      5-min Rain = 0
KSW1 100135Z 03008KT 01/M04 A3037 RMK A01 T00061040  RH  071%=      5-min Rain = 0
KSW1 100136Z 03008KT 01/M04 A3037 RMK A01 T00061040  RH  071%=      5-min Rain = 0
KSW1 100137Z 03008KT 01/M04 A3037 RMK A01 T00061040  RH  071%=      5-min Rain = 0
KSW1 100138Z 03008KT 01/M04 A3037 RMK A01 T00061040  RH  071%=      5-min Rain = 0
KSW1 100139Z 03008KT 01/M04 A3037 RMK A01 T00061041  RH  071%=      5-min Rain = 0
KSW1 100140Z 03008KT 01/M04 A3037 RMK A01 T00061041  RH  071%=      5-min Rain = 0
KSW1 100141Z 03008KT 01/M04 A3037 RMK A01 T00071041  RH  070%=      5-min Rain = 0
KSW1 100142Z 03008KT 01/M04 A3037 RMK A01 T00071041  RH  070%=      5-min Rain = 0
KSW1 100143Z 03008KT 01/M04 A3037 RMK A01 T00071041  RH  070%=      5-min Rain = 0
KSW1 100144Z 03008KT 01/M04 A3037 RMK A01 T00071041  RH  070%=      5-min Rain = 0
KSW1 100145Z 03008KT 01/M04 A3037 RMK A01 T00071041  RH  070%=      5-min Rain = 0
KSW1 100146Z 03008KT 01/M04 A3037 RMK A01 T00071041  RH  070%=      5-min Rain = 0
KSW1 100147Z 03007KT 01/M04 A3037 RMK A01 T00071041  RH  070%=      5-min Rain = 0
KSW1 100148Z 04007KT 01/M04 A3037 RMK A01 T00071040  RH  070%=      5-min Rain = 0
KSW1 100149Z 03007KT 01/M04 A3037 RMK A01 T00061041  RH  071%=      5-min Rain = 0
KSW1 100150Z 03007KT 01/M04 A3037 RMK A01 T00061041  RH  070%=      5-min Rain = 0
KSW1 100151Z 03007KT 01/M04 A3037 RMK A01 T00061041  RH  070%=      5-min Rain = 0
KSW1 100152Z 03007KT 01/M04 A3037 RMK A01 T00061042  RH  070%=      5-min Rain = 0
KSW1 100153Z 03007KT 01/M04 A3037 RMK A01 T00071042  RH  070%=      5-min Rain = 0
KSW1 100154Z 03007KT 01/M04 A3037 RMK A01 T00071042  RH  070%=      5-min Rain = 0
KSW1 100155Z 04007KT 01/M04 A3037 RMK A01 T00071042  RH  070%=      5-min Rain = 0
KSW1 100156Z 04007KT 01/M04 A3037 RMK A01 T00071042  RH  070%=      5-min Rain = 0
KSW1 100157Z 04007KT 01/M04 A3037 RMK A01 T00061041  RH  070%=      5-min Rain = 0
KSW1 100158Z 04007KT 01/M04 A3037 RMK A01 T00061041  RH  071%=      5-min Rain = 0
KSW1 100159Z 04007KT 01/M04 A3037 RMK A01 T00051042  RH  071%=      5-min Rain = 0
KSW1 100200Z 04007KT 01/M04 A3037 RMK A01 T00051042  RH  071%=      5-min Rain = 0
KSW1 100201Z 04007KT 00/M04 A3037 RMK A01 T00041042  RH  071%=      5-min Rain = 0
KSW1 100202Z 04007KT 00/M04 A3037 RMK A01 T00041042  RH  071%=      5-min Rain = 0
KSW1 100203Z 04007KT 00/M04 A3037 RMK A01 T00041042  RH  071%=      5-min Rain = 0
KSW1 100204Z 04007KT 00/M04 A3037 RMK A01 T00041042  RH  071%=      5-min Rain = 0
KSW1 100205Z 04006KT 00/M04 A3037 RMK A01 T00041042  RH  071%=      5-min Rain = 0
KSW1 100206Z 04006KT 01/M04 A3037 RMK A01 T00051042  RH  071%=      5-min Rain = 0
KSW1 100207Z 04006KT 01/M04 A3037 RMK A01 T00051042  RH  071%=      5-min Rain = 0
KSW1 100208Z 04006KT 01/M04 A3037 RMK A01 T00061042  RH  071%=      5-min Rain = 0
KSW1 100209Z 04006KT 01/M04 A3037 RMK A01 T00061042  RH  071%=      5-min Rain = 0
KSW1 100210Z 04006KT 01/M04 A3037 RMK A01 T00061042  RH  071%=      5-min Rain = 0
KSW1 100211Z 04005KT 01/M04 A3037 RMK A01 T00061042  RH  070%=      5-min Rain = 0
KSW1 100212Z 04005KT 01/M04 A3037 RMK A01 T00061042  RH  070%=      5-min Rain = 0
KSW1 100213Z 05005KT 01/M04 A3037 RMK A01 T00061043  RH  070%=      5-min Rain = 0
KSW1 100214Z 05005KT 01/M04 A3037 RMK A01 T00061043  RH  070%=      5-min Rain = 0
KSW1 100215Z 05005KT 01/M04 A3037 RMK A01 T00061043  RH  070%=      5-min Rain = 0
KSW1 100216Z 05006KT 01/M04 A3038 RMK A01 T00061043  RH  069%=      5-min Rain = 0
KSW1 100217Z 05006KT 01/M04 A3038 RMK A01 T00051044  RH  070%=      5-min Rain = 0
KSW1 100218Z 05006KT 01/M04 A3037 RMK A01 T00051044  RH  070%=      5-min Rain = 0
KSW1 100219Z 05006KT 01/M04 A3037 RMK A01 T00051044  RH  070%=      5-min Rain = 0
KSW1 100220Z 05006KT 00/M05 A3037 RMK A01 T00041045  RH  070%=      5-min Rain = 0
KSW1 100221Z 05006KT 00/M05 A3037 RMK A01 T00031045  RH  070%=      5-min Rain = 0
KSW1 100222Z 05006KT 00/M05 A3037 RMK A01 T00021045  RH  071%=      5-min Rain = 0
KSW1 100223Z 05006KT 00/M04 A3037 RMK A01 T00021044  RH  071%=      5-min Rain = 0
KSW1 100224Z 05006KT 00/M04 A3037 RMK A01 T00021044  RH  071%=      5-min Rain = 0
KSW1 100225Z 05006KT 00/M04 A3038 RMK A01 T00021044  RH  071%=      5-min Rain = 0
KSW1 100226Z 05006KT 00/M04 A3038 RMK A01 T00021043  RH  071%=      5-min Rain = 0
KSW1 100227Z 05006KT 00/M04 A3038 RMK A01 T00021043  RH  072%=      5-min Rain = 0
KSW1 100228Z 04006KT 00/M04 A3038 RMK A01 T00021043  RH  072%=      5-min Rain = 0
KSW1 100229Z 04006KT 00/M04 A3038 RMK A01 T00021043  RH  072%=      5-min Rain = 0
KSW1 100230Z 04006KT 00/M04 A3038 RMK A01 T00031042  RH  072%=      5-min Rain = 0
KSW1 100231Z 04007KT 00/M04 A3038 RMK A01 T00031043  RH  071%=      5-min Rain = 0
KSW1 100232Z 04007KT 00/M04 A3038 RMK A01 T00041043  RH  071%=      5-min Rain = 0
KSW1 100233Z 04007KT 00/M04 A3038 RMK A01 T00041043  RH  071%=      5-min Rain = 0
KSW1 100234Z 04007KT 00/M04 A3038 RMK A01 T00041043  RH  071%=      5-min Rain = 0
KSW1 100235Z 04007KT 01/M04 A3038 RMK A01 T00051043  RH  071%=      5-min Rain = 0
KSW1 100236Z 05007KT 00/M04 A3038 RMK A01 T00041043  RH  071%=      5-min Rain = 0
KSW1 100237Z 05007KT 00/M04 A3038 RMK A01 T00041043  RH  071%=      5-min Rain = 0
KSW1 100238Z 05007KT 00/M04 A3038 RMK A01 T00041043  RH  071%=      5-min Rain = 0
KSW1 100239Z 05006KT 00/M04 A3038 RMK A01 T00031043  RH  071%=      5-min Rain = 0
KSW1 100240Z 05006KT 00/M04 A3038 RMK A01 T00031043  RH  071%=      5-min Rain = 0
KSW1 100241Z 05006KT 00/M04 A3038 RMK A01 T00031044  RH  071%=      5-min Rain = 0
KSW1 100242Z 05006KT 00/M04 A3038 RMK A01 T00031044  RH  071%=      5-min Rain = 0
KSW1 100243Z 05006KT 00/M04 A3038 RMK A01 T00021044  RH  071%=      5-min Rain = 0
KSW1 100244Z 05007KT 00/M04 A3038 RMK A01 T00021044  RH  071%=      5-min Rain = 0
KSW1 100245Z 05006KT 00/M04 A3038 RMK A01 T00021044  RH  071%=      5-min Rain = 0
KSW1 100246Z 05006KT 00/M04 A3038 RMK A01 T00011044  RH  071%=      5-min Rain = 0
KSW1 100247Z 05006KT 00/M04 A3038 RMK A01 T00021044  RH  071%=      5-min Rain = 0
KSW1 100248Z 05006KT 00/M04 A3038 RMK A01 T00011044  RH  071%=      5-min Rain = 0
KSW1 100249Z 06006KT 00/M04 A3038 RMK A01 T00021044  RH  071%=      5-min Rain = 0
KSW1 100250Z 06006KT 00/M05 A3038 RMK A01 T00011045  RH  071%=      5-min Rain = 0
KSW1 100251Z 06006KT 00/M05 A3038 RMK A01 T00011045  RH  071%=      5-min Rain = 0
KSW1 100252Z 06005KT 00/M05 A3038 RMK A01 T00011045  RH  071%=      5-min Rain = 0
KSW1 100253Z 06003KT 00/04 A3038 RMK A01 T00000-44  RH  072%=      5-min Rain = 0
KSW1 100254Z 05002KT M00/M04 A3038 RMK A01 T10021041  RH  075%=      5-min Rain = 0
KSW1 100255Z 05001KT M01/M04 A3038 RMK A01 T10061039  RH  078%=      5-min Rain = 0
KSW1 100256Z 05001KT M01/M04 A3038 RMK A01 T10081038  RH  080%=      5-min Rain = 0
KSW1 100257Z 05001KT M01/M04 A3038 RMK A01 T10091037  RH  082%=      5-min Rain = 0
KSW1 100258Z 06002KT M01/M04 A3038 RMK A01 T10101036  RH  083%=      5-min Rain = 0
KSW1 100259Z 06003KT M01/M04 A3038 RMK A01 T10111039  RH  081%=      5-min Rain = 0
KSW1 100300Z 06003KT M01/M04 A3038 RMK A01 T10111041  RH  080%=      5-min Rain = 0
KSW1 100301Z 06004KT M01/M04 A3038 RMK A01 T10101043  RH  079%=      5-min Rain = 0
KSW1 100302Z 06004KT M01/M04 A3038 RMK A01 T10091043  RH  077%=      5-min Rain = 0
KSW1 100303Z 06004KT M01/M04 A3038 RMK A01 T10081044  RH  077%=      5-min Rain = 0
KSW1 100304Z 05004KT M01/M04 A3038 RMK A01 T10071044  RH  076%=      5-min Rain = 0
KSW1 100305Z 05004KT M01/M04 A3038 RMK A01 T10051044  RH  075%=      5-min Rain = 0
KSW1 100306Z 05004KT M00/M04 A3038 RMK A01 T10041044  RH  074%=      5-min Rain = 0
KSW1 100307Z 05005KT M00/M04 A3038 RMK A01 T10031044  RH  074%=      5-min Rain = 0
KSW1 100308Z 04005KT M00/M04 A3038 RMK A01 T10011044  RH  073%=      5-min Rain = 0
KSW1 100309Z 04005KT M00/M05 A3038 RMK A01 T10011045  RH  072%=      5-min Rain = 0
KSW1 100310Z 04005KT 00/04 A3038 RMK A01 T00000-44  RH  072%=      5-min Rain = 0
KSW1 100311Z 04005KT 00/M04 A3038 RMK A01 T00011044  RH  072%=      5-min Rain = 0
KSW1 100312Z 04005KT 00/M04 A3038 RMK A01 T00021044  RH  071%=      5-min Rain = 0
KSW1 100313Z 04006KT 00/M04 A3038 RMK A01 T00031043  RH  071%=      5-min Rain = 0
KSW1 100314Z 04006KT 00/M04 A3038 RMK A01 T00041043  RH  071%=      5-min Rain = 0
KSW1 100315Z 03007KT 00/M04 A3039 RMK A01 T00041044  RH  070%=      5-min Rain = 0
KSW1 100316Z 03007KT 01/M04 A3039 RMK A01 T00051044  RH  069%=      5-min Rain = 0
KSW1 100317Z 03008KT 01/M04 A3039 RMK A01 T00061044  RH  069%=      5-min Rain = 0
KSW1 100318Z 03008KT 01/M04 A3039 RMK A01 T00061044  RH  069%=      5-min Rain = 0
KSW1 100319Z 03008KT 01/M04 A3039 RMK A01 T00061044  RH  069%=      5-min Rain = 0
KSW1 100320Z 03007KT 01/M04 A3039 RMK A01 T00061044  RH  069%=      5-min Rain = 0
KSW1 100321Z 03007KT 01/M05 A3039 RMK A01 T00051045  RH  069%=      5-min Rain = 0
KSW1 100322Z 03008KT 01/M04 A3039 RMK A01 T00051044  RH  070%=      5-min Rain = 0
KSW1 100323Z 03008KT 00/M05 A3039 RMK A01 T00041045  RH  070%=      5-min Rain = 0
KSW1 100324Z 03007KT 00/M04 A3039 RMK A01 T00041044  RH  070%=      5-min Rain = 0
KSW1 100325Z 04007KT 00/M04 A3039 RMK A01 T00041044  RH  070%=      5-min Rain = 0
KSW1 100326Z 04007KT 00/M04 A3039 RMK A01 T00031044  RH  071%=      5-min Rain = 0
KSW1 100327Z 04007KT 00/M04 A3039 RMK A01 T00021044  RH  071%=      5-min Rain = 0
KSW1 100328Z 03006KT 00/M04 A3039 RMK A01 T00011044  RH  071%=      5-min Rain = 0
KSW1 100329Z 03007KT 00/M05 A3039 RMK A01 T00011045  RH  072%=      5-min Rain = 0
KSW1 100330Z 03007KT 00/05 A3039 RMK A01 T00-00-45  RH  072%=      5-min Rain = 0
KSW1 100331Z 03007KT 00/05 A3039 RMK A01 T00000-45  RH  072%=      5-min Rain = 0
KSW1 100332Z 03007KT 00/05 A3039 RMK A01 T00-00-45  RH  072%=      5-min Rain = 0
KSW1 100333Z 03007KT 00/05 A3039 RMK A01 T00000-45  RH  072%=      5-min Rain = 0
KSW1 100334Z 03007KT 00/05 A3039 RMK A01 T00000-45  RH  071%=      5-min Rain = 0
KSW1 100335Z 03007KT 00/M05 A3039 RMK A01 T00011045  RH  071%=      5-min Rain = 0
KSW1 100336Z 03007KT 00/M05 A3039 RMK A01 T00011045  RH  071%=      5-min Rain = 0
KSW1 100337Z 03007KT 00/M05 A3039 RMK A01 T00011045  RH  071%=      5-min Rain = 0
KSW1 100338Z 03007KT 00/M05 A3039 RMK A01 T00011045  RH  071%=      5-min Rain = 0
KSW1 100339Z 03007KT 00/M05 A3039 RMK A01 T00021045  RH  071%=      5-min Rain = 0
KSW1 100340Z 03007KT 00/M05 A3039 RMK A01 T00021045  RH  070%=      5-min Rain = 0
KSW1 100341Z 03007KT 00/M05 A3039 RMK A01 T00031045  RH  070%=      5-min Rain = 0
KSW1 100342Z 03007KT 00/M05 A3039 RMK A01 T00041045  RH  069%=      5-min Rain = 0
KSW1 100343Z 03007KT 01/M05 A3039 RMK A01 T00051045  RH  069%=      5-min Rain = 0
KSW1 100344Z 03007KT 01/M05 A3039 RMK A01 T00051045  RH  069%=      5-min Rain = 0
KSW1 100345Z 03006KT 01/M05 A3039 RMK A01 T00051045  RH  069%=      5-min Rain = 0
KSW1 100346Z 03006KT 00/M05 A3039 RMK A01 T00041045  RH  069%=      5-min Rain = 0
KSW1 100347Z 03006KT 00/M05 A3039 RMK A01 T00041045  RH  070%=      5-min Rain = 0
KSW1 100348Z 03006KT 00/M05 A3039 RMK A01 T00031045  RH  070%=      5-min Rain = 0
KSW1 100349Z 03006KT 00/M05 A3039 RMK A01 T00031045  RH  070%=      5-min Rain = 0
KSW1 100350Z 03006KT 00/M05 A3039 RMK A01 T00031046  RH  070%=      5-min Rain = 0
KSW1 100351Z 03006KT 00/M05 A3039 RMK A01 T00021047  RH  070%=      5-min Rain = 0
KSW1 100352Z 03006KT 00/M05 A3039 RMK A01 T00031047  RH  069%=      5-min Rain = 0
KSW1 100353Z 03007KT 00/M05 A3039 RMK A01 T00031047  RH  069%=      5-min Rain = 0
KSW1 100354Z 03007KT 00/M05 A3039 RMK A01 T00041048  RH  068%=      5-min Rain = 0
KSW1 100355Z 03006KT 00/M05 A3039 RMK A01 T00041048  RH  068%=      5-min Rain = 0
KSW1 100356Z 03006KT 00/M05 A3039 RMK A01 T00041048  RH  068%=      5-min Rain = 0
KSW1 100357Z 03006KT 00/M05 A3039 RMK A01 T00041048  RH  068%=      5-min Rain = 0
KSW1 100358Z 03006KT 00/M05 A3039 RMK A01 T00041048  RH  068%=      5-min Rain = 0
KSW1 100359Z 03006KT 00/M05 A3039 RMK A01 T00041048  RH  068%=      5-min Rain = 0
KSW1 100400Z 03006KT 00/M05 A3039 RMK A01 T00031048  RH  069%=      5-min Rain = 0
KSW1 100401Z 03006KT 00/M05 A3039 RMK A01 T00031048  RH  068%=      5-min Rain = 0
KSW1 100402Z 03006KT 00/M05 A3039 RMK A01 T00041049  RH  068%=      5-min Rain = 0
KSW1 100403Z 03006KT 01/M05 A3039 RMK A01 T00051049  RH  067%=      5-min Rain = 0
KSW1 100404Z 03006KT 01/M05 A3039 RMK A01 T00061049  RH  067%=      5-min Rain = 0
KSW1 100405Z 03005KT 01/M05 A3039 RMK A01 T00061049  RH  066%=      5-min Rain = 0
KSW1 100406Z 03005KT 01/M05 A3039 RMK A01 T00061049  RH  066%=      5-min Rain = 0
KSW1 100407Z 03005KT 01/M05 A3039 RMK A01 T00061049  RH  067%=      5-min Rain = 0
KSW1 100408Z 03005KT 01/M05 A3039 RMK A01 T00061049  RH  067%=      5-min Rain = 0
KSW1 100409Z 03005KT 01/M05 A3039 RMK A01 T00061049  RH  067%=      5-min Rain = 0
KSW1 100410Z 03005KT 01/M05 A3039 RMK A01 T00051049  RH  067%=      5-min Rain = 0
KSW1 100411Z 03004KT 01/M05 A3039 RMK A01 T00061048  RH  067%=      5-min Rain = 0
KSW1 100412Z 03003KT 00/M05 A3039 RMK A01 T00031046  RH  070%=      5-min Rain = 0
KSW1 100413Z 03002KT 00/05 A3039 RMK A01 T00-00-46  RH  072%=      5-min Rain = 0
KSW1 100414Z 02001KT M00/M05 A3039 RMK A01 T10041046  RH  073%=      5-min Rain = 0
KSW1 100415Z 02000KT M01/M05 A3039 RMK A01 T10081045  RH  076%=      5-min Rain = 0
KSW1 100416Z 02000KT M01/M04 A3039 RMK A01 T10101044  RH  078%=      5-min Rain = 0
KSW1 100417Z 03000KT M01/M04 A3039 RMK A01 T10111044  RH  079%=      5-min Rain = 0
KSW1 100418Z 02001KT M01/M04 A3039 RMK A01 T10131043  RH  080%=      5-min Rain = 0
KSW1 100419Z 02002KT M01/M04 A3039 RMK A01 T10141044  RH  080%=      5-min Rain = 0
KSW1 100420Z 02002KT M02/M04 A3039 RMK A01 T10151044  RH  081%=      5-min Rain = 0
KSW1 100421Z 02002KT M02/M04 A3039 RMK A01 T10151044  RH  081%=      5-min Rain = 0
KSW1 100422Z 03003KT M02/M04 A3039 RMK A01 T10161044  RH  081%=      5-min Rain = 0
KSW1 100423Z 03003KT M02/M04 A3039 RMK A01 T10161044  RH  081%=      5-min Rain = 0
KSW1 100424Z 04003KT M02/M05 A3039 RMK A01 T10161045  RH  081%=      5-min Rain = 0
KSW1 100425Z 04003KT M02/M05 A3039 RMK A01 T10151045  RH  080%=      5-min Rain = 0
KSW1 100426Z 04003KT M02/M05 A3039 RMK A01 T10151045  RH  080%=      5-min Rain = 0
KSW1 100427Z 04002KT M02/M05 A3039 RMK A01 T10151045  RH  080%=      5-min Rain = 0
KSW1 100428Z 05002KT M02/M05 A3039 RMK A01 T10151045  RH  080%=      5-min Rain = 0
KSW1 100429Z 07001KT M02/M05 A3039 RMK A01 T10151045  RH  080%=      5-min Rain = 0
KSW1 100430Z 14002KT M02/M05 A3039 RMK A01 T10161045  RH  081%=      5-min Rain = 0
KSW1 100431Z 16002KT M02/M05 A3039 RMK A01 T10171045  RH  081%=      5-min Rain = 0
KSW1 100432Z 16002KT M02/M04 A3039 RMK A01 T10171044  RH  082%=      5-min Rain = 0
KSW1 100433Z 17001KT M02/M04 A3039 RMK A01 T10181044  RH  083%=      5-min Rain = 0
KSW1 100434Z 17001KT M02/M04 A3039 RMK A01 T10181043  RH  083%=      5-min Rain = 0
KSW1 100435Z 00000KT M02/M04 A3039 RMK A01 T10181043  RH  083%=      5-min Rain = 0
KSW1 100436Z 00000KT M02/M04 A3039 RMK A01 T10181043  RH  083%=      5-min Rain = 0
KSW1 100437Z 00000KT M02/M04 A3039 RMK A01 T10171043  RH  082%=      5-min Rain = 0
KSW1 100438Z 07001KT M02/M04 A3039 RMK A01 T10161044  RH  081%=      5-min Rain = 0
KSW1 100439Z 07001KT M01/M04 A3039 RMK A01 T10141044  RH  080%=      5-min Rain = 0
KSW1 100440Z 07001KT M01/M04 A3039 RMK A01 T10131044  RH  079%=      5-min Rain = 0
KSW1 100441Z 07001KT M01/M04 A3039 RMK A01 T10121044  RH  079%=      5-min Rain = 0
KSW1 100442Z 07001KT M01/M05 A3039 RMK A01 T10121045  RH  079%=      5-min Rain = 0
KSW1 100443Z 07000KT M01/M05 A3039 RMK A01 T10121045  RH  079%=      5-min Rain = 0
KSW1 100444Z 12001KT M01/M05 A3039 RMK A01 T10121045  RH  079%=      5-min Rain = 0
KSW1 100445Z 14002KT M01/M05 A3039 RMK A01 T10131045  RH  079%=      5-min Rain = 0
KSW1 100446Z 15002KT M01/M05 A3039 RMK A01 T10131045  RH  078%=      5-min Rain = 0
KSW1 100447Z 15002KT M01/M05 A3039 RMK A01 T10131046  RH  078%=      5-min Rain = 0
KSW1 100448Z 15002KT M01/M05 A3039 RMK A01 T10121045  RH  078%=      5-min Rain = 0
KSW1 100449Z 14001KT M01/M05 A3039 RMK A01 T10111045  RH  078%=      5-min Rain = 0
KSW1 100450Z 12001KT M01/M05 A3039 RMK A01 T10091045  RH  077%=      5-min Rain = 0
KSW1 100451Z 11001KT M01/M05 A3039 RMK A01 T10081045  RH  076%=      5-min Rain = 0
KSW1 100452Z 09001KT M01/M05 A3039 RMK A01 T10071046  RH  075%=      5-min Rain = 0
KSW1 100453Z 08001KT M01/M05 A3039 RMK A01 T10071047  RH  074%=      5-min Rain = 0
KSW1 100454Z 07001KT M01/M05 A3039 RMK A01 T10071047  RH  074%=      5-min Rain = 0
KSW1 100455Z 06001KT M01/M05 A3039 RMK A01 T10061046  RH  074%=      5-min Rain = 0
KSW1 100456Z 05001KT M01/M05 A3039 RMK A01 T10061046  RH  074%=      5-min Rain = 0
KSW1 100457Z 05001KT M01/M05 A3039 RMK A01 T10061046  RH  074%=      5-min Rain = 0
KSW1 100458Z 06001KT M01/M05 A3039 RMK A01 T10061047  RH  074%=      5-min Rain = 0
KSW1 100459Z 06001KT M01/M05 A3039 RMK A01 T10051047  RH  074%=      5-min Rain = 0
KSW1 100500Z 06001KT M00/M05 A3039 RMK A01 T10041047  RH  073%=      5-min Rain = 0
KSW1 100501Z 06000KT M00/M05 A3039 RMK A01 T10031047  RH  072%=      5-min Rain = 0
KSW1 100502Z 00000KT M00/M05 A3039 RMK A01 T10011047  RH  071%=      5-min Rain = 0
KSW1 100503Z 00000KT M00/M05 A3039 RMK A01 T10011047  RH  071%=      5-min Rain = 0
KSW1 100504Z 09000KT 00/05 A3039 RMK A01 T00000-48  RH  070%=      5-min Rain = 0
KSW1 100505Z 09001KT 00/M05 A3039 RMK A01 T00011048  RH  069%=      5-min Rain = 0
KSW1 100506Z 09001KT 00/M05 A3039 RMK A01 T00021048  RH  069%=      5-min Rain = 0
KSW1 100507Z 09001KT 00/M05 A3039 RMK A01 T00021048  RH  069%=      5-min Rain = 0
KSW1 100508Z 08001KT 00/M05 A3039 RMK A01 T00021048  RH  069%=      5-min Rain = 0
KSW1 100509Z 07001KT 00/M05 A3039 RMK A01 T00021048  RH  069%=      5-min Rain = 0
KSW1 100510Z 06002KT 00/M05 A3039 RMK A01 T00021048  RH  069%=      5-min Rain = 0
KSW1 100511Z 05002KT 00/M05 A3039 RMK A01 T00011049  RH  069%=      5-min Rain = 0
KSW1 100512Z 05002KT 00/M05 A3039 RMK A01 T00011049  RH  069%=      5-min Rain = 0
KSW1 100513Z 04002KT 00/M05 A3039 RMK A01 T00011050  RH  069%=      5-min Rain = 0
KSW1 100514Z 04002KT 00/M05 A3039 RMK A01 T00011050  RH  068%=      5-min Rain = 0
KSW1 100515Z 04002KT 00/M05 A3039 RMK A01 T00021050  RH  068%=      5-min Rain = 0
KSW1 100516Z 04001KT 00/M05 A3039 RMK A01 T00021051  RH  068%=      5-min Rain = 0
KSW1 100517Z 04001KT 00/M05 A3039 RMK A01 T00031050  RH  067%=      5-min Rain = 0
KSW1 100518Z 04002KT 00/M05 A3039 RMK A01 T00041051  RH  067%=      5-min Rain = 0
KSW1 100519Z 04002KT 01/M05 A3039 RMK A01 T00051051  RH  066%=      5-min Rain = 0
KSW1 100520Z 04001KT 01/M05 A3039 RMK A01 T00051051  RH  066%=      5-min Rain = 0
KSW1 100521Z 04001KT 01/M05 A3039 RMK A01 T00061051  RH  066%=      5-min Rain = 0
KSW1 100522Z 00000KT 01/M05 A3039 RMK A01 T00051052  RH  066%=      5-min Rain = 0
KSW1 100523Z 00000KT 01/M05 A3039 RMK A01 T00051052  RH  066%=      5-min Rain = 0
KSW1 100524Z 00000KT 01/M05 A3039 RMK A01 T00051052  RH  066%=      5-min Rain = 0
KSW1 100525Z 00000KT 00/M05 A3039 RMK A01 T00041052  RH  066%=      5-min Rain = 0
KSW1 100526Z 00000KT 00/M05 A3039 RMK A01 T00041052  RH  066%=      5-min Rain = 0
KSW1 100527Z 00000KT 00/M05 A3039 RMK A01 T00031052  RH  067%=      5-min Rain = 0
KSW1 100528Z 00000KT 00/M05 A3039 RMK A01 T00031052  RH  067%=      5-min Rain = 0
KSW1 100529Z 15001KT 00/M05 A3039 RMK A01 T00021052  RH  067%=      5-min Rain = 0
KSW1 100530Z 15002KT 00/M05 A3039 RMK A01 T00011052  RH  068%=      5-min Rain = 0
KSW1 100531Z 16002KT 00/05 A3039 RMK A01 T00-00-52  RH  068%=      5-min Rain = 0
KSW1 100532Z 17002KT M00/M05 A3039 RMK A01 T10021052  RH  069%=      5-min Rain = 0
KSW1 100533Z 17002KT M00/M05 A3039 RMK A01 T10031052  RH  070%=      5-min Rain = 0
KSW1 100534Z 17001KT M00/M05 A3039 RMK A01 T10041051  RH  070%=      5-min Rain = 0
KSW1 100535Z 17001KT M00/M05 A3039 RMK A01 T10041051  RH  070%=      5-min Rain = 0
KSW1 100536Z 17002KT M00/M05 A3039 RMK A01 T10041051  RH  070%=      5-min Rain = 0
KSW1 100537Z 17002KT M00/M05 A3038 RMK A01 T10041051  RH  071%=      5-min Rain = 0
KSW1 100538Z 17002KT M01/M05 A3038 RMK A01 T10051050  RH  071%=      5-min Rain = 0
KSW1 100539Z 17002KT M01/M05 A3038 RMK A01 T10061050  RH  072%=      5-min Rain = 0
KSW1 100540Z 17002KT M01/M05 A3038 RMK A01 T10071050  RH  072%=      5-min Rain = 0
KSW1 100541Z 17002KT M01/M05 A3038 RMK A01 T10071050  RH  072%=      5-min Rain = 0
KSW1 100542Z 17002KT M01/M05 A3038 RMK A01 T10071051  RH  072%=      5-min Rain = 0
KSW1 100543Z 17002KT M01/M05 A3038 RMK A01 T10071051  RH  072%=      5-min Rain = 0
KSW1 100544Z 17001KT M01/M05 A3038 RMK A01 T10071052  RH  072%=      5-min Rain = 0
KSW1 100545Z 17001KT M01/M05 A3038 RMK A01 T10071052  RH  071%=      5-min Rain = 0
KSW1 100546Z 17001KT M01/M05 A3038 RMK A01 T10071052  RH  071%=      5-min Rain = 0
KSW1 100547Z 17000KT M01/M05 A3039 RMK A01 T10071052  RH  071%=      5-min Rain = 0
KSW1 100548Z 00000KT M01/M05 A3039 RMK A01 T10061052  RH  071%=      5-min Rain = 0
KSW1 100549Z 00000KT M01/M05 A3039 RMK A01 T10061053  RH  070%=      5-min Rain = 0
KSW1 100550Z 00000KT M01/M05 A3039 RMK A01 T10051054  RH  070%=      5-min Rain = 0
KSW1 100551Z 00000KT M00/M05 A3039 RMK A01 T10041054  RH  069%=      5-min Rain = 0
KSW1 100552Z 00000KT M00/M06 A3039 RMK A01 T10031055  RH  068%=      5-min Rain = 0
KSW1 100553Z 00000KT M00/M06 A3039 RMK A01 T10021055  RH  067%=      5-min Rain = 0
KSW1 100554Z 00000KT M00/M06 A3039 RMK A01 T10011056  RH  066%=      5-min Rain = 0
KSW1 100555Z 17000KT 00/06 A3039 RMK A01 T00-00-57  RH  066%=      5-min Rain = 0
KSW1 100556Z 17000KT 00/M06 A3039 RMK A01 T00011058  RH  065%=      5-min Rain = 0
KSW1 100557Z 17001KT 00/M06 A3039 RMK A01 T00021058  RH  064%=      5-min Rain = 0
KSW1 100558Z 17001KT 00/M06 A3039 RMK A01 T00031058  RH  063%=      5-min Rain = 0
KSW1 100559Z 17000KT 00/M06 A3039 RMK A01 T00031059  RH  063%=      5-min Rain = 0

Page generated in 0.159 seconds.